GW2849 Weather Reports


time (UTC)temp
C
wind
direction
speed
KPH
gust
KPH
rain 1hr
cm
rain 24hr
cm
rain mn
cm
humidity
%
barometer
mb
20260902231800 32 287 1.6 6.4 0.00 0.00 0.00 58 1016.0
20260902231701 32 323 1.6 6.4 0.00 0.00 0.00 59 1016.1
20260902231602 32 218 3.2 9.7 0.00 0.00 0.00 59 1016.1
20260902231501 32 223 1.6 9.7 0.00 0.00 0.00 58 1016.0
20260902231300 32 182 0.0 9.7 0.00 0.00 0.00 59 1016.1
20260902231100 32 207 0.0 9.7 0.00 0.00 0.00 58 1016.2
20260902231001 32 213 3.2 9.7 0.00 0.00 0.00 58 1016.2
20260902230859 32 157 3.2 9.7 0.00 0.00 0.00 58 1016.2
20260902230800 32 200 3.2 9.7 0.00 0.00 0.00 58 1016.1
20260902230702 32 185 1.6 9.7 0.00 0.00 0.00 58 1016.2
20260902230601 32 173 0.0 9.7 0.00 0.00 0.00 59 1016.2
20260902230400 32 246 0.0 9.7 0.00 0.00 0.00 58 1016.2
20260902230201 32 185 1.6 9.7 0.00 0.00 0.00 57 1016.1
20260902225959 32 190 3.2 9.7 0.00 0.00 0.00 58 1016.2
20260902225859 32 66 0.0 9.7 0.00 0.00 0.00 57 1016.2
20260902225759 32 254 0.0 3.2 0.00 0.00 0.00 57 1016.2
20260902225659 32 209 1.6 3.2 0.00 0.00 0.00 58 1016.2
20260902225603 32 265 0.0 3.2 0.00 0.00 0.00 57 1016.2
20260902225459 32 163 0.0 3.2 0.00 0.00 0.00 56 1016.3
20260902225400 32 132 0.0 3.2 0.00 0.00 0.00 57 1016.2
20260902225259 32 64 0.0 3.2 0.00 0.00 0.00 57 1016.2
20260902225200 32 173 0.0 4.8 0.00 0.00 0.00 58 1016.3
20260902225059 33 201 0.0 6.4 0.00 0.00 0.00 58 1016.2
20260902224959 33 182 0.0 6.4 0.00 0.00 0.00 57 1016.3
20260902224758 33 196 0.0 6.4 0.00 0.00 0.00 57 1016.3
20260902224701 33 213 0.0 6.4 0.00 0.00 0.00 57 1016.3
20260902224559 33 189 0.0 6.4 0.00 0.00 0.00 57 1016.3
20260902224459 33 189 0.0 6.4 0.00 0.00 0.00 57 1016.3
20260902224359 33 211 1.6 6.4 0.00 0.00 0.00 56 1016.3
20260902224200 33 158 0.0 6.4 0.00 0.00 0.00 56 1016.3
20260902224059 33 200 1.6 6.4 0.00 0.00 0.00 56 1016.2
20260902223859 33 198 0.0 3.2 0.00 0.00 0.00 56 1016.3
20260902223801 33 246 0.0 3.2 0.00 0.00 0.00 57 1016.2
20260902223658 33 165 0.0 6.4 0.00 0.00 0.00 56 1016.3
20260902223559 33 257 0.0 6.4 0.00 0.00 0.00 56 1016.2
20260902223459 33 220 0.0 6.4 0.00 0.00 0.00 56 1016.2
20260902223359 33 288 0.0 9.7 0.00 0.00 0.00 56 1016.3
20260902223259 33 208 0.0 9.7 0.00 0.00 0.00 55 1016.3
20260902223100 33 209 0.0 9.7 0.00 0.00 0.00 55 1016.3
20260902223000 33 278 0.0 9.7 0.00 0.00 0.00 55 1016.3
20260902222859 33 300 3.2 9.7 0.00 0.00 0.00 55 1016.4
20260902222759 33 278 3.2 9.7 0.00 0.00 0.00 55 1016.3
20260902222659 33 158 3.2 9.7 0.00 0.00 0.00 55 1016.4
20260902222559 33 319 4.8 9.7 0.00 0.00 0.00 55 1016.5
20260902222459 33 146 0.0 11.3 0.00 0.00 0.00 55 1016.4
20260902222401 33 327 0.0 11.3 0.00 0.00 0.00 55 1016.4
20260902222259 33 188 3.2 11.3 0.00 0.00 0.00 55 1016.4
20260902222200 33 203 1.6 11.3 0.00 0.00 0.00 55 1016.4
20260902222059 33 234 3.2 11.3 0.00 0.00 0.00 55 1016.5
20260902221859 33 216 6.4 8.0 0.00 0.00 0.00 55 1016.5
20260902221759 33 98 3.2 8.0 0.00 0.00 0.00 55 1016.5
20260902221601 33 207 1.6 3.2 0.00 0.00 0.00 55 1016.5
20260902221459 33 254 0.0 12.9 0.00 0.00 0.00 55 1016.4
20260902221359 33 188 0.0 12.9 0.00 0.00 0.00 55 1016.4
20260902221300 33 273 0.0 12.9 0.00 0.00 0.00 55 1016.5
20260902221200 33 110 1.6 12.9 0.00 0.00 0.00 55 1016.5
20260902221059 33 333 1.6 12.9 0.00 0.00 0.00 54 1016.5
20260902220958 33 319 0.0 12.9 0.00 0.00 0.00 54 1016.5
20260902220859 33 313 1.6 12.9 0.00 0.00 0.00 54 1016.5
20260902220600 33 162 6.4 14.5 0.00 0.00 0.00 53 1016.5
20260902220459 33 180 6.4 14.5 0.00 0.00 0.00 53 1016.5
20260902220400 33 213 1.6 11.3 0.00 0.00 0.00 53 1016.5
20260902220259 34 173 3.2 11.3 0.00 0.00 0.00 53 1016.5
20260902220158 34 188 8.0 11.3 0.00 0.00 0.00 53 1016.5
20260902220059 34 107 1.6 11.3 0.00 0.00 0.00 53 1016.5
20260902220000 34 190 3.2 11.3 0.00 0.00 0.00 54 1016.4
20260902215759 34 169 6.4 11.3 0.00 0.00 0.00 53 1016.5
20260902215500 34 190 0.0 4.8 0.00 0.00 0.00 54 1016.4
20260902215359 34 171 0.0 4.8 0.00 0.00 0.00 53 1016.4
20260902215259 34 145 0.0 4.8 0.00 0.00 0.00 53 1016.4
20260902215200 34 194 0.0 4.8 0.00 0.00 0.00 53 1016.4
20260902215001 34 348 0.0 8.0 0.00 0.00 0.00 54 1016.5
20260902214859 34 200 1.6 8.0 0.00 0.00 0.00 53 1016.4
20260902214700 34 252 0.0 8.0 0.00 0.00 0.00 54 1016.5
20260902214559 34 263 0.0 8.0 0.00 0.00 0.00 54 1016.5
20260902214459 34 125 0.0 8.0 0.00 0.00 0.00 55 1016.6
20260902214358 34 315 0.0 8.0 0.00 0.00 0.00 53 1016.5
20260902214302 34 167 0.0 8.0 0.00 0.00 0.00 53 1016.5
20260902214158 34 150 0.0 4.8 0.00 0.00 0.00 54 1016.6
20260902214102 34 196 0.0 3.2 0.00 0.00 0.00 54 1016.5
20260902214002 34 140 0.0 4.8 0.00 0.00 0.00 54 1016.5
20260902213759 34 254 0.0 4.8 0.00 0.00 0.00 53 1016.5
20260902213700 34 267 0.0 4.8 0.00 0.00 0.00 53 1016.5
20260902213503 34 247 0.0 11.3 0.00 0.00 0.00 54 1016.6
20260902213400 34 259 0.0 11.3 0.00 0.00 0.00 53 1016.5
20260902213259 34 243 1.6 11.3 0.00 0.00 0.00 53 1016.5
20260902213200 34 160 1.6 11.3 0.00 0.00 0.00 53 1016.6
20260902213100 34 225 0.0 11.3 0.00 0.00 0.00 52 1016.6
20260902212959 34 208 0.0 11.3 0.00 0.00 0.00 53 1016.5
20260902212859 34 98 0.0 8.0 0.00 0.00 0.00 53 1016.5
20260902212800 34 173 1.6 8.0 0.00 0.00 0.00 53 1016.6
20260902212657 34 173 1.6 8.0 0.00 0.00 0.00 53 1016.6
20260902212559 34 205 0.0 8.0 0.00 0.00 0.00 53 1016.6
20260902212358 34 286 1.6 8.0 0.00 0.00 0.00 51 1016.6
20260902212257 34 287 3.2 6.4 0.00 0.00 0.00 52 1016.6
20260902212158 34 294 0.0 6.4 0.00 0.00 0.00 51 1016.5
20260902212058 34 119 0.0 9.7 0.00 0.00 0.00 51 1016.5
20260902211958 34 202 0.0 14.5 0.00 0.00 0.00 52 1016.5
20260902211858 35 179 0.0 14.5 0.00 0.00 0.00 51 1016.6
20260902211757 35 231 0.0 14.5 0.00 0.00 0.00 51 1016.6
20260902211659 35 119 0.0 14.5 0.00 0.00 0.00 51 1016.6
20260902211558 35 289 6.4 14.5 0.00 0.00 0.00 52 1016.6
20260902211458 35 135 3.2 14.5 0.00 0.00 0.00 51 1016.6
20260902211357 35 203 1.6 14.5 0.00 0.00 0.00 51 1016.6
20260902211258 35 172 0.0 14.5 0.00 0.00 0.00 51 1016.6
20260902211158 35 184 12.9 16.1 0.00 0.00 0.00 52 1016.7
20260902210957 35 218 3.2 9.7 0.00 0.00 0.00 51 1016.6
20260902210859 35 298 4.8 9.7 0.00 0.00 0.00 52 1016.8
20260902210758 35 302 0.0 9.7 0.00 0.00 0.00 52 1016.7
20260902210658 35 311 3.2 9.7 0.00 0.00 0.00 52 1016.6
20260902210557 35 40 0.0 8.0 0.00 0.00 0.00 52 1016.7
20260902210458 35 160 0.0 11.3 0.00 0.00 0.00 51 1016.7
20260902210159 35 176 3.2 11.3 0.00 0.00 0.00 52 1016.7
20260902210059 35 190 4.8 11.3 0.00 0.00 0.00 52 1016.6
20260902205959 34 182 3.2 11.3 0.00 0.00 0.00 52 1016.6
20260902205858 34 276 1.6 11.3 0.00 0.00 0.00 53 1016.7
20260902205759 34 247 0.0 11.3 0.00 0.00 0.00 52 1016.7
20260902205657 34 173 9.7 9.7 0.00 0.00 0.00 53 1016.7
20260902205559 34 316 3.2 4.8 0.00 0.00 0.00 53 1016.6
20260902205458 34 174 1.6 6.4 0.00 0.00 0.00 52 1016.7
20260902205358 34 252 0.0 6.4 0.00 0.00 0.00 53 1016.7
20260902205158 34 180 0.0 6.4 0.00 0.00 0.00 52 1016.8
20260902205058 34 180 0.0 6.4 0.00 0.00 0.00 52 1016.7
20260902204957 34 175 0.0 6.4 0.00 0.00 0.00 51 1016.8
20260902204857 34 204 0.0 6.4 0.00 0.00 0.00 52 1016.8
20260902204559 35 321 0.0 6.4 0.00 0.00 0.00 52 1016.7
20260902204459 35 173 0.0 6.4 0.00 0.00 0.00 51 1016.8
20260902204358 35 173 0.0 6.4 0.00 0.00 0.00 51 1016.8
20260902204258 35 150 0.0 6.4 0.00 0.00 0.00 50 1016.8
20260902204158 35 246 0.0 6.4 0.00 0.00 0.00 52 1016.8
20260902204100 35 239 0.0 6.4 0.00 0.00 0.00 52 1016.8
20260902203959 35 211 3.2 6.4 0.00 0.00 0.00 52 1016.8
20260902203858 35 345 0.0 6.4 0.00 0.00 0.00 51 1016.8
20260902203758 35 216 0.0 6.4 0.00 0.00 0.00 51 1016.8
20260902203658 35 215 0.0 12.9 0.00 0.00 0.00 51 1016.8
20260902203557 35 145 0.0 12.9 0.00 0.00 0.00 50 1016.8
20260902203458 35 145 0.0 14.5 0.00 0.00 0.00 49 1016.9
20260902203357 35 271 0.0 14.5 0.00 0.00 0.00 49 1016.9
20260902203158 35 191 3.2 14.5 0.00 0.00 0.00 49 1016.8
20260902203058 35 204 3.2 14.5 0.00 0.00 0.00 49 1016.9
20260902202957 35 263 3.2 14.5 0.00 0.00 0.00 49 1016.9
20260902202900 35 161 3.2 14.5 0.00 0.00 0.00 50 1016.9
20260902202758 35 223 1.6 14.5 0.00 0.00 0.00 50 1016.8
20260902202659 35 97 3.2 14.5 0.00 0.00 0.00 50 1016.8
20260902202558 35 344 4.8 14.5 0.00 0.00 0.00 50 1016.9
20260902202457 35 224 6.4 11.3 0.00 0.00 0.00 50 1016.9
20260902202358 35 152 6.4 11.3 0.00 0.00 0.00 51 1016.9
20260902202258 35 38 0.0 11.3 0.00 0.00 0.00 50 1016.9
20260902202200 35 237 1.6 11.3 0.00 0.00 0.00 50 1016.9
20260902201959 35 189 4.8 11.3 0.00 0.00 0.00 49 1016.9
20260902201859 35 173 0.0 11.3 0.00 0.00 0.00 50 1016.9
20260902201758 35 150 6.4 9.7 0.00 0.00 0.00 50 1016.9
20260902201659 35 166 0.0 9.7 0.00 0.00 0.00 51 1016.9
20260902201558 35 194 1.6 9.7 0.00 0.00 0.00 51 1016.9
20260902201458 35 62 1.6 9.7 0.00 0.00 0.00 52 1016.9
20260902201358 35 355 0.0 9.7 0.00 0.00 0.00 51 1016.8
20260902201258 35 135 3.2 9.7 0.00 0.00 0.00 52 1016.9
20260902201158 35 197 1.6 9.7 0.00 0.00 0.00 50 1016.9
20260902201058 35 193 3.2 9.7 0.00 0.00 0.00 50 1016.9
20260902201000 35 18 1.6 8.0 0.00 0.00 0.00 51 1016.8
20260902200858 35 227 0.0 4.8 0.00 0.00 0.00 52 1016.9
20260902200658 35 163 0.0 8.0 0.00 0.00 0.00 51 1016.9
20260902200558 35 221 0.0 8.0 0.00 0.00 0.00 50 1017.0
20260902200459 35 175 0.0 8.0 0.00 0.00 0.00 50 1016.9
20260902200358 35 165 1.6 8.0 0.00 0.00 0.00 51 1016.9
20260902200257 35 188 0.0 8.0 0.00 0.00 0.00 51 1017.0
20260902200158 35 13 0.0 8.0 0.00 0.00 0.00 50 1017.0
20260902200101 35 205 0.0 9.7 0.00 0.00 0.00 51 1017.0
20260902195957 35 159 0.0 9.7 0.00 0.00 0.00 50 1017.0
20260902195858 35 231 4.8 9.7 0.00 0.00 0.00 50 1017.0
20260902195700 35 275 6.4 9.7 0.00 0.00 0.00 51 1017.0
20260902195600 35 213 0.0 9.7 0.00 0.00 0.00 50 1017.0
20260902195400 35 288 0.0 9.7 0.00 0.00 0.00 53 1017.1
20260902195300 35 194 0.0 9.7 0.00 0.00 0.00 51 1017.1
20260902195159 35 360 0.0 9.7 0.00 0.00 0.00 50 1017.0
20260902195100 35 182 0.0 11.3 0.00 0.00 0.00 53 1017.0
20260902194959 35 332 0.0 14.5 0.00 0.00 0.00 54 1017.0
20260902194659 35 212 1.6 14.5 0.00 0.00 0.00 52 1017.2
20260902194458 35 187 0.0 14.5 0.00 0.00 0.00 51 1017.1
20260902194359 35 30 0.0 14.5 0.00 0.00 0.00 52 1017.1
20260902194258 35 331 3.2 14.5 0.00 0.00 0.00 51 1017.1
20260902194158 35 158 3.2 14.5 0.00 0.00 0.00 51 1017.1
20260902193959 35 164 3.2 9.7 0.00 0.00 0.00 53 1017.2
20260902193858 35 208 0.0 9.7 0.00 0.00 0.00 51 1017.3
20260902193800 35 346 0.0 9.7 0.00 0.00 0.00 53 1017.3
20260902193700 35 193 0.0 9.7 0.00 0.00 0.00 51 1017.3
20260902193600 35 318 0.0 9.7 0.00 0.00 0.00 51 1017.3
20260902193459 35 157 1.6 9.7 0.00 0.00 0.00 51 1017.3
20260902193358 35 132 1.6 9.7 0.00 0.00 0.00 51 1017.3
20260902193300 35 296 3.2 9.7 0.00 0.00 0.00 51 1017.3
20260902193159 35 216 1.6 9.7 0.00 0.00 0.00 51 1017.4
20260902193101 35 290 8.0 9.7 0.00 0.00 0.00 51 1017.3
20260902193000 35 242 4.8 9.7 0.00 0.00 0.00 51 1017.4
20260902192859 35 201 1.6 6.4 0.00 0.00 0.00 53 1017.3
20260902192800 35 147 0.0 6.4 0.00 0.00 0.00 53 1017.4
20260902192659 35 198 6.4 6.4 0.00 0.00 0.00 54 1017.3
20260902192459 34 346 3.2 6.4 0.00 0.00 0.00 53 1017.4
20260902192359 34 142 0.0 6.4 0.00 0.00 0.00 51 1017.4
20260902192259 34 157 1.6 8.0 0.00 0.00 0.00 53 1017.4
20260902192058 34 246 0.0 8.0 0.00 0.00 0.00 53 1017.5
20260902191958 34 294 1.6 8.0 0.00 0.00 0.00 52 1017.5
20260902191759 34 262 6.4 14.5 0.00 0.00 0.00 53 1017.5
20260902191659 34 244 0.0 14.5 0.00 0.00 0.00 52 1017.5
20260902191600 34 304 0.0 14.5 0.00 0.00 0.00 52 1017.5
20260902191459 34 165 3.2 14.5 0.00 0.00 0.00 52 1017.6
20260902191358 35 329 4.8 14.5 0.00 0.00 0.00 52 1017.5
20260902191300 35 201 3.2 14.5 0.00 0.00 0.00 52 1017.5
20260902191158 35 190 3.2 14.5 0.00 0.00 0.00 51 1017.5
20260902191101 35 223 1.6 14.5 0.00 0.00 0.00 51 1017.5
20260902190959 35 215 3.2 14.5 0.00 0.00 0.00 50 1017.7
20260902190859 35 208 4.8 16.1 0.00 0.00 0.00 53 1017.6
20260902190759 35 175 0.0 16.1 0.00 0.00 0.00 51 1017.5
20260902190659 35 191 0.0 16.1 0.00 0.00 0.00 52 1017.5
20260902190559 35 277 3.2 16.1 0.00 0.00 0.00 52 1017.6
20260902190359 35 32 0.0 16.1 0.00 0.00 0.00 52 1017.7
20260902190300 35 178 3.2 16.1 0.00 0.00 0.00 52 1017.6
20260902190159 35 257 6.4 9.7 0.00 0.00 0.00 54 1017.6
20260902185958 34 225 3.2 4.8 0.00 0.00 0.00 55 1017.5
20260902185800 34 20 1.6 6.4 0.00 0.00 0.00 53 1017.6
20260902185558 34 292 0.0 6.4 0.00 0.00 0.00 52 1017.7
20260902185459 34 291 3.2 6.4 0.00 0.00 0.00 53 1017.7
20260902185400 34 254 0.0 6.4 0.00 0.00 0.00 53 1017.6
20260902185300 34 162 0.0 6.4 0.00 0.00 0.00 55 1017.6
20260902185200 34 178 1.6 6.4 0.00 0.00 0.00 54 1017.6
20260902185058 34 5 1.6 6.4 0.00 0.00 0.00 53 1017.6
20260902184800 34 121 0.0 14.5 0.00 0.00 0.00 52 1017.6
20260902184659 34 202 1.6 14.5 0.00 0.00 0.00 52 1017.6
20260902184558 34 207 1.6 14.5 0.00 0.00 0.00 53 1017.7
20260902184458 34 213 0.0 14.5 0.00 0.00 0.00 52 1017.6
20260902184400 34 111 0.0 14.5 0.00 0.00 0.00 53 1017.8
20260902184259 34 259 3.2 14.5 0.00 0.00 0.00 53 1017.7
20260902184159 34 47 3.2 14.5 0.00 0.00 0.00 53 1017.8
20260902184059 34 92 0.0 14.5 0.00 0.00 0.00 52 1017.9
20260902183859 34 32 0.0 6.4 0.00 0.00 0.00 54 1017.8
20260902183759 34 309 3.2 6.4 0.00 0.00 0.00 53 1017.8
20260902183700 34 161 1.6 6.4 0.00 0.00 0.00 55 1017.8
20260902183559 34 142 1.6 6.4 0.00 0.00 0.00 52 1017.8
20260902183501 34 215 4.8 11.3 0.00 0.00 0.00 52 1017.8
20260902183359 34 263 1.6 11.3 0.00 0.00 0.00 51 1017.8
20260902183258 34 188 1.6 11.3 0.00 0.00 0.00 52 1017.8
20260902183200 34 162 0.0 11.3 0.00 0.00 0.00 51 1017.8
20260902183058 35 160 1.6 11.3 0.00 0.00 0.00 52 1017.8
20260902182959 35 209 1.6 11.3 0.00 0.00 0.00 52 1017.9
20260902182858 35 207 1.6 11.3 0.00 0.00 0.00 52 1017.9
20260902182600 34 291 3.2 9.7 0.00 0.00 0.00 53 1017.9
20260902182500 34 349 0.0 9.7 0.00 0.00 0.00 54 1017.9
20260902182358 34 167 0.0 9.7 0.00 0.00 0.00 55 1017.9
20260902182300 34 320 0.0 9.7 0.00 0.00 0.00 57 1017.9
20260902181959 34 159 0.0 9.7 0.00 0.00 0.00 54 1017.8
20260902181859 33 178 0.0 9.7 0.00 0.00 0.00 54 1017.8
20260902181758 33 360 0.0 16.1 0.00 0.00 0.00 55 1017.8
20260902181658 33 158 0.0 16.1 0.00 0.00 0.00 55 1017.8
20260902181600 33 165 3.2 16.1 0.00 0.00 0.00 55 1017.8
20260902181459 33 160 0.0 16.1 0.00 0.00 0.00 55 1017.9
20260902181300 33 150 0.0 16.1 0.00 0.00 0.00 53 1017.9
20260902181159 34 190 0.0 16.1 0.00 0.00 0.00 54 1017.9
20260902181059 34 204 4.8 16.1 0.00 0.00 0.00 53 1018.0
20260902180959 34 146 6.4 14.5 0.00 0.00 0.00 54 1017.9
20260902180900 34 146 3.2 11.3 0.00 0.00 0.00 53 1017.9
20260902180800 34 202 3.2 11.3 0.00 0.00 0.00 53 1018.0
20260902180659 34 167 4.8 11.3 0.00 0.00 0.00 54 1018.0
20260902180358 34 360 1.6 11.3 0.00 0.00 0.00 53 1018.0
20260902180159 34 329 1.6 8.0 0.00 0.00 0.00 55 1018.0
20260902180059 34 334 0.0 8.0 0.00 0.00 0.00 54 1018.0
20260902175958 34 351 0.0 8.0 0.00 0.00 0.00 53 1018.1
20260902175859 34 355 0.0 8.0 0.00 0.00 0.00 53 1018.1
20260902175757 34 70 0.0 8.0 0.00 0.00 0.00 53 1018.0
20260902175657 34 323 3.2 8.0 0.00 0.00 0.00 52 1018.0
20260902175559 34 165 0.0 6.4 0.00 0.00 0.00 53 1018.1
20260902175457 34 311 0.0 6.4 0.00 0.00 0.00 54 1018.1
20260902175357 34 199 0.0 6.4 0.00 0.00 0.00 52 1018.1
20260902175258 34 199 4.8 6.4 0.00 0.00 0.00 52 1018.2
20260902175100 34 188 1.6 6.4 0.00 0.00 0.00 55 1018.1
20260902174959 34 153 1.6 8.0 0.00 0.00 0.00 55 1018.1
20260902174759 34 338 0.0 8.0 0.00 0.00 0.00 56 1018.1
20260902174658 34 248 4.8 11.3 0.00 0.00 0.00 55 1018.1
20260902174558 34 204 1.6 11.3 0.00 0.00 0.00 55 1018.1
20260902174458 34 225 1.6 11.3 0.00 0.00 0.00 56 1018.2
20260902174358 34 211 3.2 11.3 0.00 0.00 0.00 56 1018.2
20260902174258 34 244 0.0 11.3 0.00 0.00 0.00 55 1018.2
20260902174059 34 120 3.2 11.3 0.00 0.00 0.00 55 1018.2
20260902173958 34 215 0.0 11.3 0.00 0.00 0.00 55 1018.2
20260902173857 34 188 0.0 11.3 0.00 0.00 0.00 55 1018.3
20260902173658 33 214 0.0 12.9 0.00 0.00 0.00 56 1018.3
20260902173558 33 175 0.0 12.9 0.00 0.00 0.00 55 1018.3
20260902173458 33 84 1.6 14.5 0.00 0.00 0.00 55 1018.3
20260902173357 33 132 1.6 14.5 0.00 0.00 0.00 54 1018.4
20260902173258 33 255 3.2 14.5 0.00 0.00 0.00 55 1018.3
20260902173058 33 91 3.2 14.5 0.00 0.00 0.00 54 1018.3
20260902172957 33 175 11.3 14.5 0.00 0.00 0.00 55 1018.3
20260902172858 33 336 8.0 14.5 0.00 0.00 0.00 56 1018.4
20260902172657 33 194 4.8 16.1 0.00 0.00 0.00 55 1018.3
20260902172559 33 177 4.8 9.7 0.00 0.00 0.00 55 1018.3
20260902172458 33 227 1.6 9.7 0.00 0.00 0.00 55 1018.4
20260902172258 33 181 1.6 9.7 0.00 0.00 0.00 57 1018.3
20260902172157 33 55 0.0 9.7 0.00 0.00 0.00 56 1018.4
20260902171957 33 121 1.6 9.7 0.00 0.00 0.00 56 1018.4
20260902171858 33 186 0.0 9.7 0.00 0.00 0.00 55 1018.4
20260902171758 33 188 1.6 9.7 0.00 0.00 0.00 55 1018.4
20260902171658 33 82 1.6 9.7 0.00 0.00 0.00 54 1018.4
20260902171557 33 167 1.6 9.7 0.00 0.00 0.00 55 1018.4
20260902171459 33 250 4.8 9.7 0.00 0.00 0.00 55 1018.4
20260902171357 33 157 4.8 9.7 0.00 0.00 0.00 56 1018.4
20260902171258 33 174 1.6 9.7 0.00 0.00 0.00 56 1018.5
20260902171158 33 344 0.0 9.7 0.00 0.00 0.00 56 1018.4
20260902171058 33 127 1.6 11.3 0.00 0.00 0.00 58 1018.5
20260902170958 33 189 1.6 11.3 0.00 0.00 0.00 57 1018.4
20260902170858 33 333 0.0 11.3 0.00 0.00 0.00 56 1018.4
20260902170757 33 180 3.2 12.9 0.00 0.00 0.00 55 1018.5
20260902170657 33 271 4.8 12.9 0.00 0.00 0.00 55 1018.5
20260902170458 33 249 1.6 12.9 0.00 0.00 0.00 54 1018.5
20260902170258 33 172 8.0 12.9 0.00 0.00 0.00 54 1018.5
20260902170057 33 299 4.8 12.9 0.00 0.00 0.00 55 1018.5
20260902170000 33 177 8.0 12.9 0.00 0.00 0.00 55 1018.5
20260902165859 34 157 9.7 14.5 0.00 0.00 0.00 55 1018.5
20260902165558 34 30 6.4 11.3 0.00 0.00 0.00 56 1018.6
20260902165459 34 165 6.4 11.3 0.00 0.00 0.00 57 1018.6
20260902165358 34 306 1.6 6.4 0.00 0.00 0.00 55 1018.5
20260902165259 33 204 4.8 8.0 0.00 0.00 0.00 58 1018.6
20260902165157 33 100 0.0 8.0 0.00 0.00 0.00 57 1018.6
20260902165100 33 163 0.0 9.7 0.00 0.00 0.00 57 1018.6
20260902164957 33 335 1.6 9.7 0.00 0.00 0.00 57 1018.6
20260902164759 33 245 0.0 9.7 0.00 0.00 0.00 55 1018.6
20260902164657 33 342 0.0 9.7 0.00 0.00 0.00 58 1018.5
20260902164558 33 178 0.0 9.7 0.00 0.00 0.00 57 1018.6
20260902164457 33 155 0.0 9.7 0.00 0.00 0.00 56 1018.5
20260902164357 33 28 0.0 9.7 0.00 0.00 0.00 55 1018.6
20260902164300 33 229 3.2 9.7 0.00 0.00 0.00 54 1018.6
20260902164058 33 192 3.2 4.8 0.00 0.00 0.00 58 1018.6
20260902163958 33 173 3.2 4.8 0.00 0.00 0.00 57 1018.6
20260902163858 33 169 0.0 9.7 0.00 0.00 0.00 58 1018.6
20260902163759 33 161 1.6 9.7 0.00 0.00 0.00 58 1018.6
20260902163659 33 159 0.0 9.7 0.00 0.00 0.00 58 1018.6
20260902163559 33 163 0.0 9.7 0.00 0.00 0.00 58 1018.7
20260902163458 33 161 0.0 9.7 0.00 0.00 0.00 59 1018.6
20260902163358 33 93 0.0 11.3 0.00 0.00 0.00 60 1018.7
20260902163259 33 233 0.0 11.3 0.00 0.00 0.00 57 1018.6
20260902163158 33 154 3.2 11.3 0.00 0.00 0.00 57 1018.7
20260902163057 33 146 1.6 11.3 0.00 0.00 0.00 58 1018.7
20260902162959 33 173 8.0 11.3 0.00 0.00 0.00 59 1018.7
20260902162857 33 180 1.6 17.7 0.00 0.00 0.00 60 1018.7
20260902162759 33 341 0.0 17.7 0.00 0.00 0.00 58 1018.7
20260902162657 33 299 1.6 17.7 0.00 0.00 0.00 58 1018.8
20260902162558 33 275 1.6 17.7 0.00 0.00 0.00 58 1018.8
20260902162458 33 276 4.8 17.7 0.00 0.00 0.00 57 1018.8
20260902162257 33 171 6.4 17.7 0.00 0.00 0.00 57 1018.8
20260902162158 33 184 6.4 17.7 0.00 0.00 0.00 56 1018.7
20260902162058 33 192 4.8 17.7 0.00 0.00 0.00 57 1018.7
20260902161957 33 169 9.7 9.7 0.00 0.00 0.00 59 1018.7
20260902161858 33 284 4.8 9.7 0.00 0.00 0.00 59 1018.7
20260902161800 33 227 0.0 9.7 0.00 0.00 0.00 58 1018.8
20260902161658 33 236 0.0 12.9 0.00 0.00 0.00 58 1018.7
20260902161557 33 212 1.6 12.9 0.00 0.00 0.00 57 1018.7
20260902161459 33 140 4.8 12.9 0.00 0.00 0.00 57 1018.7
20260902161359 33 175 4.8 12.9 0.00 0.00 0.00 57 1018.8
20260902161259 33 248 0.0 12.9 0.00 0.00 0.00 58 1018.7
20260902161158 33 165 1.6 12.9 0.00 0.00 0.00 59 1018.7
20260902161057 33 128 1.6 12.9 0.00 0.00 0.00 58 1018.8
20260902160959 33 190 6.4 12.9 0.00 0.00 0.00 58 1018.8
20260902160858 33 295 1.6 12.9 0.00 0.00 0.00 57 1018.7
20260902160757 33 296 1.6 9.7 0.00 0.00 0.00 58 1018.8
20260902160659 33 243 4.8 9.7 0.00 0.00 0.00 58 1018.7
20260902160559 33 13 0.0 9.7 0.00 0.00 0.00 58 1018.8
20260902160457 33 335 4.8 9.7 0.00 0.00 0.00 59 1018.8
20260902160258 33 267 3.2 9.7 0.00 0.00 0.00 59 1018.7
20260902160159 33 203 0.0 9.7 0.00 0.00 0.00 58 1018.8
20260902155957 33 236 1.6 8.0 0.00 0.00 0.00 59 1018.7
20260902155757 33 5 1.6 8.0 0.00 0.00 0.00 58 1018.8
20260902155657 33 225 1.6 8.0 0.00 0.00 0.00 57 1018.8
20260902155559 33 216 1.6 8.0 0.00 0.00 0.00 59 1018.9
20260902155457 33 144 3.2 8.0 0.00 0.00 0.00 59 1018.9
20260902155358 33 176 0.0 8.0 0.00 0.00 0.00 58 1018.9
20260902155157 33 184 4.8 8.0 0.00 0.00 0.00 58 1018.9
20260902155058 33 302 0.0 8.0 0.00 0.00 0.00 58 1018.9
20260902154958 33 236 0.0 9.7 0.00 0.00 0.00 59 1018.8
20260902154857 33 267 1.6 9.7 0.00 0.00 0.00 59 1018.9
20260902154759 33 294 1.6 9.7 0.00 0.00 0.00 59 1018.9
20260902154558 33 181 3.2 9.7 0.00 0.00 0.00 59 1019.0
20260902154358 33 217 1.6 9.7 0.00 0.00 0.00 59 1018.9
20260902154158 33 238 3.2 11.3 0.00 0.00 0.00 59 1019.0
20260902154059 33 124 1.6 9.7 0.00 0.00 0.00 59 1019.0
20260902153858 33 173 1.6 9.7 0.00 0.00 0.00 59 1019.0
20260902153759 33 142 1.6 9.7 0.00 0.00 0.00 59 1019.0
20260902153659 33 198 3.2 9.7 0.00 0.00 0.00 60 1019.1
20260902153558 33 109 3.2 4.8 0.00 0.00 0.00 61 1019.0
20260902153457 33 194 1.6 4.8 0.00 0.00 0.00 61 1019.0
20260902153359 33 190 1.6 4.8 0.00 0.00 0.00 60 1019.0
20260902153158 32 157 0.0 6.4 0.00 0.00 0.00 62 1019.0
20260902152958 32 85 0.0 6.4 0.00 0.00 0.00 60 1019.1
20260902152758 32 300 0.0 6.4 0.00 0.00 0.00 62 1019.0
20260902152659 32 242 1.6 6.4 0.00 0.00 0.00 62 1019.0
20260902152559 32 167 4.8 6.4 0.00 0.00 0.00 62 1019.0
20260902152458 32 194 0.0 6.4 0.00 0.00 0.00 62 1019.0
20260902152359 32 163 0.0 4.8 0.00 0.00 0.00 62 1019.0
20260902152259 32 167 0.0 4.8 0.00 0.00 0.00 63 1019.0
20260902152159 32 255 0.0 4.8 0.00 0.00 0.00 63 1019.0
20260902152059 32 145 0.0 4.8 0.00 0.00 0.00 62 1019.1
20260902152000 32 330 0.0 4.8 0.00 0.00 0.00 62 1019.1
20260902151902 32 308 0.0 6.4 0.00 0.00 0.00 62 1019.0
20260902151804 32 308 0.0 6.4 0.00 0.00 0.00 63 1019.0
20260902151701 32 5 0.0 6.4 0.00 0.00 0.00 63 1019.1
20260902151500 32 340 0.0 6.4 0.00 0.00 0.00 64 1019.1
20260902151259 32 168 0.0 6.4 0.00 0.00 0.00 63 1019.1
20260902151159 32 22 0.0 6.4 0.00 0.00 0.00 63 1019.1
20260902151100 31 19 0.0 6.4 0.00 0.00 0.00 63 1019.1
20260902150959 31 170 6.4 6.4 0.00 0.00 0.00 63 1019.1
20260902150801 31 228 0.0 6.4 0.00 0.00 0.00 65 1019.1
20260902150659 31 322 0.0 6.4 0.00 0.00 0.00 65 1019.1
20260902150559 31 321 0.0 6.4 0.00 0.00 0.00 65 1019.2
20260902150459 31 347 1.6 6.4 0.00 0.00 0.00 65 1019.2
20260902150400 31 182 0.0 6.4 0.00 0.00 0.00 64 1019.2
20260902150259 31 191 3.2 6.4 0.00 0.00 0.00 64 1019.2
20260902150159 31 202 1.6 6.4 0.00 0.00 0.00 65 1019.0
20260902150100 31 284 1.6 6.4 0.00 0.00 0.00 66 1019.0
20260902145958 31 290 4.8 8.0 0.00 0.00 0.00 65 1019.1
20260902145857 31 159 6.4 8.0 0.00 0.00 0.00 65 1019.1
20260902145759 31 157 3.2 8.0 0.00 0.00 0.00 65 1019.1
20260902145658 31 242 0.0 8.0 0.00 0.00 0.00 65 1019.1
20260902145458 31 182 0.0 8.0 0.00 0.00 0.00 65 1019.0
20260902145258 31 154 3.2 8.0 0.00 0.00 0.00 65 1019.0
20260902145159 31 192 1.6 8.0 0.00 0.00 0.00 65 1019.0
20260902145059 31 94 1.6 6.4 0.00 0.00 0.00 66 1019.0
20260902144958 31 15 3.2 8.0 0.00 0.00 0.00 66 1018.9
20260902144857 31 251 1.6 8.0 0.00 0.00 0.00 67 1018.9
20260902144757 31 153 0.0 9.7 0.00 0.00 0.00 67 1018.9
20260902144658 31 307 1.6 9.7 0.00 0.00 0.00 66 1018.9
20260902144458 31 190 1.6 9.7 0.00 0.00 0.00 66 1019.0
20260902144358 31 163 1.6 9.7 0.00 0.00 0.00 66 1019.0
20260902144258 31 206 4.8 9.7 0.00 0.00 0.00 66 1018.9
20260902144158 31 175 1.6 9.7 0.00 0.00 0.00 65 1019.0
20260902144058 31 209 4.8 9.7 0.00 0.00 0.00 65 1018.9
20260902144000 31 144 0.0 9.7 0.00 0.00 0.00 65 1019.0
20260902143858 31 194 3.2 9.7 0.00 0.00 0.00 66 1019.0
20260902143658 31 227 1.6 9.7 0.00 0.00 0.00 67 1019.0
20260902143457 31 101 0.0 9.7 0.00 0.00 0.00 67 1019.0
20260902143357 31 245 0.0 9.7 0.00 0.00 0.00 66 1019.0
20260902143258 31 154 0.0 9.7 0.00 0.00 0.00 66 1018.9
20260902143200 31 182 1.6 1.6 0.00 0.00 0.00 67 1019.0
20260902143000 30 181 0.0 3.2 0.00 0.00 0.00 68 1018.9
20260902142858 30 42 0.0 3.2 0.00 0.00 0.00 67 1018.9
20260902142758 30 47 0.0 6.4 0.00 0.00 0.00 68 1018.9
20260902142700 30 15 0.0 6.4 0.00 0.00 0.00 68 1018.9
20260902142558 30 15 0.0 6.4 0.00 0.00 0.00 68 1018.9
20260902142458 30 113 0.0 6.4 0.00 0.00 0.00 67 1019.0
20260902142359 30 254 0.0 6.4 0.00 0.00 0.00 68 1018.9
20260902142259 30 334 0.0 6.4 0.00 0.00 0.00 68 1019.0
20260902142159 30 196 1.6 9.7 0.00 0.00 0.00 68 1019.0
20260902142058 30 171 3.2 9.7 0.00 0.00 0.00 68 1019.0
20260902141958 30 170 0.0 9.7 0.00 0.00 0.00 68 1019.1
20260902141858 30 180 3.2 14.5 0.00 0.00 0.00 68 1019.0
20260902141757 30 174 3.2 14.5 0.00 0.00 0.00 68 1019.0
20260902141658 30 206 0.0 14.5 0.00 0.00 0.00 68 1019.0
20260902141557 30 205 3.2 14.5 0.00 0.00 0.00 68 1019.0
20260902141458 30 165 0.0 14.5 0.00 0.00 0.00 68 1019.0
20260902141358 30 175 1.6 14.5 0.00 0.00 0.00 68 1019.0
20260902141258 30 191 9.7 14.5 0.00 0.00 0.00 68 1019.0
20260902141158 30 223 0.0 14.5 0.00 0.00 0.00 68 1019.0
20260902141059 30 206 3.2 16.1 0.00 0.00 0.00 68 1019.1
20260902140958 30 209 0.0 4.8 0.00 0.00 0.00 68 1019.0
20260902140858 30 195 0.0 4.8 0.00 0.00 0.00 69 1019.0
20260902140758 30 317 4.8 4.8 0.00 0.00 0.00 69 1019.0
20260902140658 30 159 0.0 4.8 0.00 0.00 0.00 69 1019.0
20260902140558 29 163 0.0 4.8 0.00 0.00 0.00 69 1019.0
20260902140458 29 262 0.0 4.8 0.00 0.00 0.00 69 1019.0
20260902140158 29 186 4.8 6.4 0.00 0.00 0.00 68 1019.0
20260902140059 29 164 3.2 9.7 0.00 0.00 0.00 68 1019.1
20260902135958 29 236 4.8 9.7 0.00 0.00 0.00 68 1019.0
20260902135758 29 206 0.0 9.7 0.00 0.00 0.00 69 1019.0
20260902135659 29 290 0.0 9.7 0.00 0.00 0.00 68 1019.0
20260902135558 29 172 0.0 9.7 0.00 0.00 0.00 68 1019.0
20260902135458 29 181 0.0 9.7 0.00 0.00 0.00 68 1019.1
20260902135359 29 227 1.6 9.7 0.00 0.00 0.00 68 1019.1
20260902135257 29 161 0.0 9.7 0.00 0.00 0.00 68 1019.0
20260902135158 28 160 1.6 6.4 0.00 0.00 0.00 68 1019.1
20260902135058 28 265 3.2 6.4 0.00 0.00 0.00 67 1019.0
20260902134959 28 194 1.6 6.4 0.00 0.00 0.00 67 1019.1
20260902134758 28 164 0.0 8.0 0.00 0.00 0.00 68 1019.1
20260902134658 28 164 1.6 8.0 0.00 0.00 0.00 69 1019.1
20260902134558 28 168 0.0 4.8 0.00 0.00 0.00 69 1019.1
20260902134457 28 168 0.0 4.8 0.00 0.00 0.00 68 1019.1
20260902134358 28 148 0.0 4.8 0.00 0.00 0.00 68 1019.0
20260902134259 28 41 3.2 6.4 0.00 0.00 0.00 69 1019.1
20260902134057 28 194 0.0 6.4 0.00 0.00 0.00 69 1019.1
20260902133958 28 244 1.6 6.4 0.00 0.00 0.00 70 1019.2
20260902133859 28 296 0.0 6.4 0.00 0.00 0.00 70 1019.1
20260902133758 28 319 3.2 6.4 0.00 0.00 0.00 70 1019.1
20260902133658 28 198 1.6 6.4 0.00 0.00 0.00 69 1019.1
20260902133558 28 302 1.6 6.4 0.00 0.00 0.00 70 1019.1
20260902133458 27 302 4.8 6.4 0.00 0.00 0.00 70 1019.1
20260902133357 27 180 3.2 6.4 0.00 0.00 0.00 70 1019.1
20260902133258 27 240 1.6 6.4 0.00 0.00 0.00 70 1019.1
20260902133158 27 181 1.6 6.4 0.00 0.00 0.00 71 1019.2
20260902133059 27 281 3.2 6.4 0.00 0.00 0.00 71 1019.1
20260902132958 27 254 1.6 6.4 0.00 0.00 0.00 71 1019.1
20260902132858 27 350 3.2 8.0 0.00 0.00 0.00 71 1019.1
20260902132758 27 255 1.6 8.0 0.00 0.00 0.00 71 1019.1
20260902132659 27 200 3.2 8.0 0.00 0.00 0.00 71 1019.2
20260902132558 27 194 4.8 8.0 0.00 0.00 0.00 71 1019.1
20260902132458 27 191 1.6 8.0 0.00 0.00 0.00 72 1019.2
20260902132358 27 173 4.8 8.0 0.00 0.00 0.00 72 1019.2
20260902132259 27 185 0.0 8.0 0.00 0.00 0.00 72 1019.2
20260902132157 27 209 0.0 8.0 0.00 0.00 0.00 72 1019.1
20260902132058 27 94 0.0 8.0 0.00 0.00 0.00 72 1019.1
20260902131958 27 150 0.0 8.0 0.00 0.00 0.00 71 1019.2
20260902131758 27 151 1.6 8.0 0.00 0.00 0.00 72 1019.2
20260902131658 27 239 3.2 6.4 0.00 0.00 0.00 72 1019.2
20260902131458 27 293 4.8 4.8 0.00 0.00 0.00 72 1019.2
20260902131259 27 221 3.2 4.8 0.00 0.00 0.00 73 1019.2
20260902131158 26 211 0.0 4.8 0.00 0.00 0.00 73 1019.2
20260902131058 26 178 1.6 4.8 0.00 0.00 0.00 73 1019.1
20260902130958 26 175 3.2 4.8 0.00 0.00 0.00 73 1019.1
20260902130758 26 269 0.0 4.8 0.00 0.00 0.00 74 1019.0
20260902130557 26 240 0.0 4.8 0.00 0.00 0.00 74 1019.0
20260902130458 26 276 1.6 4.8 0.00 0.00 0.00 74 1019.0
20260902130258 26 196 0.0 4.8 0.00 0.00 0.00 74 1018.9
20260902130159 26 193 0.0 4.8 0.00 0.00 0.00 74 1018.8
20260902130057 26 184 1.6 4.8 0.00 0.00 0.00 75 1018.9
20260902130000 26 187 1.6 4.8 0.00 0.00 0.00 75 1018.9
20260902125859 26 234 0.0 4.8 0.00 0.00 0.00 75 1018.8
20260902125757 26 187 0.0 4.8 0.00 0.00 0.00 75 1018.8
20260902125658 26 264 0.0 4.8 0.00 0.00 0.00 75 1018.8
20260902125558 26 284 3.2 8.0 0.00 0.00 0.00 75 1018.9
20260902125457 26 228 0.0 8.0 0.00 0.00 0.00 75 1018.8
20260902125257 26 360 0.0 8.0 0.00 0.00 0.00 75 1018.7
20260902125200 26 360 1.6 8.0 0.00 0.00 0.00 75 1018.8
20260902125058 26 108 0.0 8.0 0.00 0.00 0.00 75 1018.8
20260902124957 26 26 1.6 8.0 0.00 0.00 0.00 75 1018.8
20260902124758 26 180 4.8 8.0 0.00 0.00 0.00 76 1018.8
20260902124700 26 193 0.0 3.2 0.00 0.00 0.00 76 1018.9
20260902124557 26 184 0.0 3.2 0.00 0.00 0.00 76 1018.8
20260902124458 26 184 0.0 3.2 0.00 0.00 0.00 76 1018.9
20260902124359 25 167 0.0 3.2 0.00 0.00 0.00 76 1018.9
20260902124258 25 165 0.0 3.2 0.00 0.00 0.00 76 1018.9
20260902124158 25 177 0.0 3.2 0.00 0.00 0.00 76 1018.9
20260902124057 25 176 0.0 3.2 0.00 0.00 0.00 77 1018.9
20260902124000 25 185 0.0 0.0 0.00 0.00 0.00 77 1018.9
20260902123857 25 170 0.0 0.0 0.00 0.00 0.00 77 1018.9
20260902123758 25 188 0.0 0.0 0.00 0.00 0.00 77 1018.8
20260902123658 25 188 0.0 0.0 0.00 0.00 0.00 77 1018.8
20260902123557 25 188 0.0 0.0 0.00 0.00 0.00 77 1018.8
20260902123457 25 187 0.0 0.0 0.00 0.00 0.00 78 1018.9
20260902123358 25 177 0.0 0.0 0.00 0.00 0.00 78 1018.8
20260902123158 25 178 0.0 0.0 0.00 0.00 0.00 78 1018.8
20260902123059 25 178 0.0 0.0 0.00 0.00 0.00 78 1018.8
20260902122957 25 190 0.0 0.0 0.00 0.00 0.00 78 1018.8
20260902122657 25 250 0.0 0.0 0.00 0.00 0.00 79 1018.8
20260902122557 25 213 0.0 0.0 0.00 0.00 0.00 79 1018.9
20260902122257 25 250 0.0 0.0 0.00 0.00 0.00 79 1018.8
20260902122157 25 248 0.0 0.0 0.00 0.00 0.00 79 1018.9
20260902122059 25 248 0.0 0.0 0.00 0.00 0.00 79 1018.8
20260902121959 25 237 0.0 0.0 0.00 0.00 0.00 79 1018.9
20260902121859 24 237 0.0 0.0 0.00 0.00 0.00 79 1018.9
20260902121757 24 239 0.0 0.0 0.00 0.00 0.00 80 1018.9
20260902121658 24 227 0.0 0.0 0.00 0.00 0.00 80 1018.8
20260902121558 24 227 0.0 0.0 0.00 0.00 0.00 80 1018.8
20260902121457 24 232 0.0 0.0 0.00 0.00 0.00 80 1018.8
20260902121358 24 225 0.0 0.0 0.00 0.00 0.00 80 1018.8
20260902121257 24 234 0.0 0.0 0.00 0.00 0.00 80 1018.7
20260902121157 24 277 0.0 0.0 0.00 0.00 0.00 80 1018.7
20260902121058 24 277 0.0 0.0 0.00 0.00 0.00 80 1018.7
20260902120957 24 265 0.0 0.0 0.00 0.00 0.00 80 1018.7
20260902120858 24 265 0.0 0.0 0.00 0.00 0.00 80 1018.7
20260902120757 24 265 0.0 0.0 0.00 0.00 0.00 80 1018.7
20260902120658 24 284 0.0 0.0 0.00 0.00 0.00 80 1018.7
20260902120558 24 286 0.0 0.0 0.00 0.00 0.00 80 1018.8
20260902120458 24 288 0.0 0.0 0.00 0.00 0.00 80 1018.7
20260902120359 24 249 0.0 0.0 0.00 0.00 0.00 81 1018.7
20260902120158 23 249 0.0 0.0 0.00 0.00 0.00 81 1018.7
20260902120058 23 249 0.0 0.0 0.00 0.00 0.00 80 1018.7
20260902115757 23 249 0.0 0.0 0.00 0.00 0.00 81 1018.7
20260902115658 23 249 0.0 0.0 0.00 0.00 0.00 81 1018.7
20260902115557 23 249 0.0 0.0 0.00 0.00 0.00 81 1018.6
20260902115458 23 249 0.0 0.0 0.00 0.00 0.00 81 1018.6
20260902115358 23 249 0.0 0.0 0.00 0.00 0.00 81 1018.6
20260902115258 23 249 0.0 0.0 0.00 0.00 0.00 81 1018.6
20260902115200 23 248 0.0 0.0 0.00 0.00 0.00 81 1018.6
20260902115057 23 248 0.0 0.0 0.00 0.00 0.00 81 1018.5
20260902114957 23 250 0.0 0.0 0.00 0.00 0.00 81 1018.6
20260902114859 23 250 0.0 0.0 0.00 0.00 0.00 81 1018.6
20260902114757 23 240 0.0 0.0 0.00 0.00 0.00 81 1018.6
20260902114658 23 240 0.0 0.0 0.00 0.00 0.00 81 1018.6
20260902114557 23 240 0.0 0.0 0.00 0.00 0.00 81 1018.6
20260902114457 23 240 0.0 0.0 0.00 0.00 0.00 81 1018.5
20260902114358 23 258 0.0 0.0 0.00 0.00 0.00 81 1018.6
20260902114257 23 255 0.0 0.0 0.00 0.00 0.00 81 1018.5
20260902114157 23 255 0.0 0.0 0.00 0.00 0.00 81 1018.5
20260902113957 23 255 0.0 0.0 0.00 0.00 0.00 81 1018.5
20260902113857 23 255 0.0 0.0 0.00 0.00 0.00 81 1018.6
20260902113658 23 255 0.0 0.0 0.00 0.00 0.00 81 1018.6
20260902113458 23 255 0.0 0.0 0.00 0.00 0.00 81 1018.5
20260902113358 23 275 0.0 0.0 0.00 0.00 0.00 81 1018.5
20260902113257 23 275 0.0 0.0 0.00 0.00 0.00 81 1018.5
20260902112958 23 277 0.0 0.0 0.00 0.00 0.00 81 1018.4
20260902112857 23 277 0.0 0.0 0.00 0.00 0.00 81 1018.4
20260902112757 23 277 0.0 0.0 0.00 0.00 0.00 81 1018.4
20260902112657 23 277 0.0 0.0 0.00 0.00 0.00 81 1018.4
20260902112558 23 277 0.0 0.0 0.00 0.00 0.00 81 1018.3
20260902112457 23 277 0.0 0.0 0.00 0.00 0.00 81 1018.4
20260902112358 23 277 0.0 0.0 0.00 0.00 0.00 81 1018.3
20260902112257 23 277 0.0 0.0 0.00 0.00 0.00 81 1018.3
20260902112159 23 277 0.0 0.0 0.00 0.00 0.00 81 1018.3
20260902112058 23 277 0.0 0.0 0.00 0.00 0.00 81 1018.2
20260902111957 23 277 0.0 0.0 0.00 0.00 0.00 81 1018.3
20260902111858 23 277 0.0 0.0 0.00 0.00 0.00 81 1018.3
20260902111758 23 277 0.0 0.0 0.00 0.00 0.00 81 1018.3
20260902111658 23 277 0.0 0.0 0.00 0.00 0.00 81 1018.2
20260902111558 23 277 0.0 0.0 0.00 0.00 0.00 81 1018.2
20260902111458 23 277 0.0 0.0 0.00 0.00 0.00 81 1018.2
20260902111357 23 277 0.0 0.0 0.00 0.00 0.00 81 1018.3
20260902111258 23 277 0.0 0.0 0.00 0.00 0.00 81 1018.3
20260902111157 23 277 0.0 0.0 0.00 0.00 0.00 81 1018.3
20260902111057 23 277 0.0 0.0 0.00 0.00 0.00 81 1018.3
20260902110957 23 277 0.0 0.0 0.00 0.00 0.00 81 1018.3
20260902110858 23 277 0.0 0.0 0.00 0.00 0.00 81 1018.3
20260902110758 23 279 0.0 0.0 0.00 0.00 0.00 81 1018.3
20260902110657 23 277 0.0 0.0 0.00 0.00 0.00 81 1018.3
20260902110600 23 280 0.0 0.0 0.00 0.00 0.00 81 1018.3
20260902110458 23 280 0.0 0.0 0.00 0.00 0.00 81 1018.4
20260902110357 23 280 0.0 0.0 0.00 0.00 0.00 81 1018.3
20260902110159 23 280 0.0 0.0 0.00 0.00 0.00 81 1018.3
20260902110058 23 286 0.0 0.0 0.00 0.00 0.00 81 1018.2
20260902105958 23 286 0.0 0.0 0.00 0.00 0.00 81 1018.2
20260902105857 23 286 0.0 0.0 0.00 0.00 0.00 81 1018.3
20260902105757 23 286 0.0 0.0 0.00 0.00 0.00 81 1018.2
20260902105658 23 286 0.0 0.0 0.00 0.00 0.00 81 1018.3
20260902105557 23 286 0.0 0.0 0.00 0.00 0.00 81 1018.3
20260902105457 23 315 0.0 0.0 0.00 0.00 0.00 81 1018.3
20260902105358 23 315 0.0 0.0 0.00 0.00 0.00 81 1018.3
20260902105257 23 315 0.0 0.0 0.00 0.00 0.00 81 1018.3
20260902105158 23 315 0.0 0.0 0.00 0.00 0.00 81 1018.4
20260902105057 23 315 0.0 0.0 0.00 0.00 0.00 81 1018.4
20260902104857 23 315 0.0 0.0 0.00 0.00 0.00 81 1018.3
20260902104557 23 315 0.0 0.0 0.00 0.00 0.00 81 1018.3
20260902104459 23 315 0.0 0.0 0.00 0.00 0.00 81 1018.3
20260902104359 23 315 0.0 0.0 0.00 0.00 0.00 81 1018.3
20260902104257 23 315 0.0 0.0 0.00 0.00 0.00 81 1018.3
20260902104157 23 315 0.0 0.0 0.00 0.00 0.00 81 1018.3
20260902104059 23 315 0.0 0.0 0.00 0.00 0.00 81 1018.3
20260902103957 23 315 0.0 0.0 0.00 0.00 0.00 81 1018.2
20260902103757 23 315 0.0 0.0 0.00 0.00 0.00 81 1018.3
20260902103658 23 315 0.0 0.0 0.00 0.00 0.00 81 1018.3
20260902103558 23 315 0.0 0.0 0.00 0.00 0.00 81 1018.3
20260902103302 23 315 0.0 0.0 0.00 0.00 0.00 81 1018.2
20260902103157 23 315 0.0 0.0 0.00 0.00 0.00 81 1018.2
20260902103058 23 315 0.0 0.0 0.00 0.00 0.00 81 1018.2
20260902102958 23 315 0.0 0.0 0.00 0.00 0.00 81 1018.1
20260902102856 23 315 0.0 0.0 0.00 0.00 0.00 81 1018.1
20260902102757 23 315 0.0 0.0 0.00 0.00 0.00 81 1018.1
20260902102659 23 315 0.0 0.0 0.00 0.00 0.00 81 1018.1
20260902102558 23 315 0.0 0.0 0.00 0.00 0.00 81 1018.1
20260902102459 23 315 0.0 0.0 0.00 0.00 0.00 81 1018.1
20260902102359 23 315 0.0 0.0 0.00 0.00 0.00 81 1018.1
20260902102257 23 315 0.0 0.0 0.00 0.00 0.00 81 1018.2
20260902102159 23 315 0.0 0.0 0.00 0.00 0.00 81 1018.1
20260902101957 23 315 0.0 0.0 0.00 0.00 0.00 81 1018.1
20260902101859 23 315 0.0 0.0 0.00 0.00 0.00 81 1018.1
20260902101757 23 161 0.0 0.0 0.00 0.00 0.00 81 1018.1
20260902101657 23 161 0.0 0.0 0.00 0.00 0.00 81 1018.1
20260902101459 23 159 0.0 0.0 0.00 0.00 0.00 80 1018.1
20260902101357 23 159 0.0 0.0 0.00 0.00 0.00 80 1018.1
20260902101159 23 159 0.0 0.0 0.00 0.00 0.00 80 1018.0
20260902101057 23 159 0.0 0.0 0.00 0.00 0.00 80 1018.1
20260902100957 23 159 0.0 0.0 0.00 0.00 0.00 80 1018.1
20260902100857 23 129 0.0 0.0 0.00 0.00 0.00 80 1018.1
20260902100758 23 129 0.0 0.0 0.00 0.00 0.00 80 1018.0
20260902100658 23 129 0.0 0.0 0.00 0.00 0.00 80 1018.0
20260902100558 23 129 0.0 0.0 0.00 0.00 0.00 80 1018.0
20260902100259 23 129 0.0 0.0 0.00 0.00 0.00 80 1018.0
20260902100158 23 129 0.0 0.0 0.00 0.00 0.00 80 1017.9
20260902100058 23 129 0.0 0.0 0.00 0.00 0.00 80 1017.9
20260902100000 23 129 0.0 0.0 0.00 0.00 0.00 80 1017.9
20260902095857 23 129 0.0 0.0 0.00 0.00 0.00 79 1017.9
20260902095757 23 129 0.0 0.0 0.00 0.00 0.00 79 1017.9
20260902095558 23 129 0.0 0.0 0.00 0.00 0.00 79 1017.9
20260902095357 23 129 0.0 0.0 0.00 0.00 0.00 79 1018.0
20260902095257 23 129 0.0 0.0 0.00 0.00 0.00 79 1018.0
20260902095058 24 129 0.0 0.0 0.00 0.00 0.00 79 1018.0
20260902094957 24 129 0.0 0.0 0.00 0.00 0.00 79 1018.0
20260902094859 24 129 0.0 0.0 0.00 0.00 0.00 79 1018.0
20260902094658 24 129 0.0 0.0 0.00 0.00 0.00 79 1018.1
20260902094558 24 129 0.0 0.0 0.00 0.00 0.00 79 1018.1
20260902094458 24 129 0.0 0.0 0.00 0.00 0.00 79 1018.1
20260902094357 24 129 0.0 0.0 0.00 0.00 0.00 79 1018.1
20260902094258 24 129 0.0 0.0 0.00 0.00 0.00 79 1018.1
20260902094158 24 129 0.0 0.0 0.00 0.00 0.00 79 1018.1
20260902094058 24 129 0.0 0.0 0.00 0.00 0.00 79 1018.1
20260902093958 24 129 0.0 0.0 0.00 0.00 0.00 78 1018.2
20260902093857 24 129 0.0 0.0 0.00 0.00 0.00 78 1018.2
20260902093758 24 129 0.0 0.0 0.00 0.00 0.00 78 1018.2
20260902093657 24 129 0.0 0.0 0.00 0.00 0.00 78 1018.1
20260902093558 24 129 0.0 0.0 0.00 0.00 0.00 78 1018.1
20260902093458 24 129 0.0 0.0 0.00 0.00 0.00 78 1018.1
20260902093358 24 129 0.0 0.0 0.00 0.00 0.00 78 1018.2
20260902093159 24 129 0.0 0.0 0.00 0.00 0.00 78 1018.1
20260902093058 24 129 0.0 0.0 0.00 0.00 0.00 78 1018.1
20260902092957 24 129 0.0 0.0 0.00 0.00 0.00 78 1018.1
20260902092858 24 129 0.0 0.0 0.00 0.00 0.00 78 1018.2
20260902092759 24 129 0.0 0.0 0.00 0.00 0.00 78 1018.1
20260902092657 24 129 0.0 0.0 0.00 0.00 0.00 78 1018.1
20260902092458 24 129 0.0 0.0 0.00 0.00 0.00 78 1018.1
20260902092358 24 129 0.0 0.0 0.00 0.00 0.00 78 1018.1
20260902092258 24 129 0.0 0.0 0.00 0.00 0.00 78 1018.1
20260902092056 24 129 0.0 0.0 0.00 0.00 0.00 78 1017.9
20260902091958 24 129 0.0 0.0 0.00 0.00 0.00 78 1018.0
20260902091857 24 129 0.0 0.0 0.00 0.00 0.00 78 1017.9
20260902091758 24 129 0.0 0.0 0.00 0.00 0.00 78 1018.0
20260902091658 24 129 0.0 0.0 0.00 0.00 0.00 78 1018.0
20260902091558 24 129 0.0 0.0 0.00 0.00 0.00 78 1018.0
20260902091257 24 129 0.0 0.0 0.00 0.00 0.00 78 1018.0
20260902091158 24 129 0.0 0.0 0.00 0.00 0.00 78 1018.1
20260902091056 24 129 0.0 0.0 0.00 0.00 0.00 78 1018.0
20260902090957 24 129 0.0 0.0 0.00 0.00 0.00 78 1018.0
20260902090900 24 129 0.0 0.0 0.00 0.00 0.00 78 1018.0
20260902090758 24 129 0.0 0.0 0.00 0.00 0.00 79 1017.9
20260902090557 24 129 0.0 0.0 0.00 0.00 0.00 79 1017.9
20260902090457 24 129 0.0 0.0 0.00 0.00 0.00 79 1017.9
20260902090358 25 129 0.0 0.0 0.00 0.00 0.00 79 1017.9
20260902090157 25 129 0.0 0.0 0.00 0.00 0.00 79 1017.9
20260902085957 25 129 0.0 0.0 0.00 0.00 0.00 78 1017.9
20260902085858 25 129 0.0 0.0 0.00 0.00 0.00 78 1017.9
20260902085659 25 173 0.0 0.0 0.00 0.00 0.00 79 1017.9
20260902085558 25 173 0.0 0.0 0.00 0.00 0.00 79 1017.9
20260902085458 25 173 0.0 0.0 0.00 0.00 0.00 79 1017.9
20260902085257 25 173 0.0 0.0 0.00 0.00 0.00 79 1017.9
20260902085158 25 173 0.0 0.0 0.00 0.00 0.00 79 1017.9
20260902085057 25 162 0.0 0.0 0.00 0.00 0.00 79 1017.8
20260902084959 25 162 0.0 0.0 0.00 0.00 0.00 79 1017.8
20260902084859 25 162 0.0 0.0 0.00 0.00 0.00 79 1017.8
20260902084757 25 162 0.0 0.0 0.00 0.00 0.00 79 1017.8
20260902084658 25 162 0.0 0.0 0.00 0.00 0.00 79 1017.8
20260902084557 25 162 0.0 0.0 0.00 0.00 0.00 79 1017.8
20260902084457 25 162 0.0 0.0 0.00 0.00 0.00 79 1017.7
20260902084258 25 279 0.0 0.0 0.00 0.00 0.00 79 1017.8
20260902084156 25 280 0.0 0.0 0.00 0.00 0.00 79 1017.7
20260902084057 25 197 0.0 0.0 0.00 0.00 0.00 79 1017.7
20260902083959 25 181 0.0 0.0 0.00 0.00 0.00 79 1017.7
20260902083758 25 222 0.0 0.0 0.00 0.00 0.00 79 1017.7
20260902083658 25 222 0.0 0.0 0.00 0.00 0.00 79 1017.7
20260902083557 25 225 0.0 0.0 0.00 0.00 0.00 79 1017.6
20260902083457 25 225 0.0 0.0 0.00 0.00 0.00 79 1017.6
20260902083359 25 208 0.0 0.0 0.00 0.00 0.00 79 1017.6
20260902083258 25 208 0.0 0.0 0.00 0.00 0.00 79 1017.6
20260902083159 25 208 0.0 0.0 0.00 0.00 0.00 79 1017.6
20260902083057 25 208 0.0 0.0 0.00 0.00 0.00 79 1017.6
20260902082959 25 208 0.0 0.0 0.00 0.00 0.00 79 1017.6
20260902082859 25 208 0.0 0.0 0.00 0.00 0.00 79 1017.6
20260902082759 25 208 0.0 0.0 0.00 0.00 0.00 79 1017.6
20260902082657 25 244 0.0 0.0 0.00 0.00 0.00 79 1017.5
20260902082558 25 244 0.0 0.0 0.00 0.00 0.00 79 1017.6
20260902082458 25 244 0.0 0.0 0.00 0.00 0.00 79 1017.6
20260902082358 25 244 0.0 0.0 0.00 0.00 0.00 79 1017.6
20260902082258 25 244 0.0 0.0 0.00 0.00 0.00 78 1017.6
20260902082059 25 244 0.0 0.0 0.00 0.00 0.00 78 1017.6
20260902081858 25 244 0.0 0.0 0.00 0.00 0.00 78 1017.5
20260902081758 25 244 0.0 0.0 0.00 0.00 0.00 78 1017.5
20260902081659 25 244 0.0 0.0 0.00 0.00 0.00 78 1017.5
20260902081557 25 244 0.0 0.0 0.00 0.00 0.00 78 1017.5
20260902081457 25 244 0.0 0.0 0.00 0.00 0.00 78 1017.4
20260902081358 25 244 0.0 0.0 0.00 0.00 0.00 78 1017.4
20260902081258 25 244 0.0 0.0 0.00 0.00 0.00 78 1017.5
20260902081157 25 244 0.0 0.0 0.00 0.00 0.00 78 1017.5
20260902081058 25 244 0.0 0.0 0.00 0.00 0.00 78 1017.4
20260902080958 25 244 0.0 0.0 0.00 0.00 0.00 78 1017.4
20260902080859 25 244 0.0 0.0 0.00 0.00 0.00 78 1017.4
20260902080758 25 244 0.0 0.0 0.00 0.00 0.00 78 1017.4
20260902080658 25 244 0.0 0.0 0.00 0.00 0.00 78 1017.4
20260902080557 25 244 0.0 0.0 0.00 0.00 0.00 78 1017.4
20260902080457 25 244 0.0 0.0 0.00 0.00 0.00 78 1017.4
20260902080357 25 291 0.0 0.0 0.00 0.00 0.00 78 1017.4
20260902080157 25 291 0.0 0.0 0.00 0.00 0.00 78 1017.3
20260902080058 25 290 0.0 0.0 0.00 0.00 0.00 78 1017.3
20260902075957 25 175 0.0 0.0 0.00 0.00 0.00 78 1017.3
20260902075901 25 175 0.0 0.0 0.00 0.00 0.00 78 1017.3
20260902075757 25 187 0.0 0.0 0.00 0.00 0.00 78 1017.4
20260902075655 25 187 0.0 0.0 0.00 0.00 0.00 78 1017.4
20260902075557 25 187 0.0 0.0 0.00 0.00 0.00 78 1017.4
20260902075457 25 187 0.0 0.0 0.00 0.00 0.00 78 1017.4
20260902075358 25 187 0.0 0.0 0.00 0.00 0.00 78 1017.4
20260902075257 25 187 0.0 0.0 0.00 0.00 0.00 78 1017.4
20260902075156 25 187 0.0 0.0 0.00 0.00 0.00 78 1017.3
20260902074956 25 185 0.0 0.0 0.00 0.00 0.00 78 1017.2
20260902074857 25 185 0.0 0.0 0.00 0.00 0.00 78 1017.3
20260902074756 25 185 0.0 0.0 0.00 0.00 0.00 78 1017.2
20260902074656 25 185 0.0 0.0 0.00 0.00 0.00 78 1017.3
20260902074557 25 185 0.0 0.0 0.00 0.00 0.00 78 1017.2
20260902074457 25 185 0.0 0.0 0.00 0.00 0.00 78 1017.2
20260902074356 25 185 0.0 0.0 0.00 0.00 0.00 78 1017.3
20260902074256 25 185 0.0 0.0 0.00 0.00 0.00 78 1017.3
20260902074158 25 235 0.0 0.0 0.00 0.00 0.00 78 1017.3
20260902074059 25 235 0.0 0.0 0.00 0.00 0.00 78 1017.3
20260902073758 25 248 0.0 0.0 0.00 0.00 0.00 78 1017.3
20260902073657 25 248 0.0 0.0 0.00 0.00 0.00 78 1017.3
20260902073456 25 248 0.0 0.0 0.00 0.00 0.00 78 1017.3
20260902073356 25 248 0.0 0.0 0.00 0.00 0.00 77 1017.2
20260902073257 25 248 0.0 0.0 0.00 0.00 0.00 77 1017.3
20260902073159 25 248 0.0 0.0 0.00 0.00 0.00 77 1017.3
20260902073056 25 248 0.0 0.0 0.00 0.00 0.00 77 1017.1
20260902072959 25 248 0.0 0.0 0.00 0.00 0.00 77 1017.3
20260902072856 25 248 0.0 0.0 0.00 0.00 0.00 77 1017.2
20260902072758 25 247 0.0 0.0 0.00 0.00 0.00 77 1017.2
20260902072657 25 247 0.0 0.0 0.00 0.00 0.00 77 1017.2
20260902072556 25 247 0.0 0.0 0.00 0.00 0.00 78 1017.2
20260902072457 25 247 0.0 0.0 0.00 0.00 0.00 77 1017.1
20260902072256 25 247 0.0 0.0 0.00 0.00 0.00 77 1017.2
20260902072157 25 242 0.0 0.0 0.00 0.00 0.00 77 1017.2
20260902072058 25 232 0.0 0.0 0.00 0.00 0.00 77 1017.2
20260902071957 25 232 0.0 0.0 0.00 0.00 0.00 78 1017.1
20260902071856 25 231 0.0 0.0 0.00 0.00 0.00 77 1017.2
20260902071658 25 231 0.0 0.0 0.00 0.00 0.00 77 1017.1
20260902071557 25 231 0.0 0.0 0.00 0.00 0.00 77 1017.2
20260902071357 25 225 0.0 0.0 0.00 0.00 0.00 78 1017.1
20260902071257 25 225 0.0 0.0 0.00 0.00 0.00 77 1017.2
20260902071056 25 215 0.0 0.0 0.00 0.00 0.00 77 1017.3
20260902070956 25 215 0.0 0.0 0.00 0.00 0.00 77 1017.3
20260902070857 25 215 0.0 0.0 0.00 0.00 0.00 77 1017.2
20260902070757 25 215 0.0 0.0 0.00 0.00 0.00 77 1017.2
20260902070556 25 215 0.0 1.6 0.00 0.00 0.00 77 1017.3
20260902070456 25 215 0.0 1.6 0.00 0.00 0.00 77 1017.3
20260902070256 25 215 0.0 1.6 0.00 0.00 0.00 78 1017.2
20260902070157 25 215 0.0 1.6 0.00 0.00 0.00 78 1017.3
20260902070056 25 207 0.0 1.6 0.00 0.00 0.00 78 1017.3
20260902065959 25 181 0.0 1.6 0.00 0.00 0.00 78 1017.3
20260902065859 25 181 0.0 1.6 0.00 0.00 0.00 78 1017.3
20260902065758 25 231 0.0 0.0 0.00 0.00 0.00 78 1017.3
20260902065657 25 232 0.0 0.0 0.00 0.00 0.00 78 1017.3
20260902065559 25 237 0.0 0.0 0.00 0.00 0.00 78 1017.3
20260902065500 25 237 0.0 0.0 0.00 0.00 0.00 78 1017.3
20260902065359 25 237 0.0 0.0 0.00 0.00 0.00 78 1017.2
20260902065157 25 237 0.0 0.0 0.00 0.00 0.00 78 1017.3
20260902065057 25 237 0.0 0.0 0.00 0.00 0.00 78 1017.3
20260902064957 25 237 0.0 0.0 0.00 0.00 0.00 78 1017.3
20260902064858 25 237 0.0 0.0 0.00 0.00 0.00 78 1017.2
20260902064757 25 237 0.0 0.0 0.00 0.00 0.00 78 1017.2
20260902064659 25 237 0.0 0.0 0.00 0.00 0.00 78 1017.2
20260902064558 25 237 0.0 0.0 0.00 0.00 0.00 78 1017.3
20260902064357 25 237 0.0 0.0 0.00 0.00 0.00 78 1017.3
20260902064258 25 231 0.0 0.0 0.00 0.00 0.00 78 1017.3
20260902064157 25 231 0.0 0.0 0.00 0.00 0.00 78 1017.3
20260902064057 25 231 0.0 0.0 0.00 0.00 0.00 78 1017.2
20260902063857 25 231 0.0 0.0 0.00 0.00 0.00 78 1017.3
20260902063759 25 231 0.0 0.0 0.00 0.00 0.00 78 1017.3
20260902063658 25 231 0.0 0.0 0.00 0.00 0.00 78 1017.3
20260902063559 25 211 0.0 0.0 0.00 0.00 0.00 78 1017.3
20260902063459 25 211 0.0 0.0 0.00 0.00 0.00 78 1017.3
20260902063358 25 211 0.0 0.0 0.00 0.00 0.00 78 1017.3
20260902063256 25 222 0.0 0.0 0.00 0.00 0.00 78 1017.3
20260902063158 25 223 0.0 0.0 0.00 0.00 0.00 78 1017.3
20260902063058 25 223 0.0 0.0 0.00 0.00 0.00 78 1017.4
20260902062957 25 221 0.0 0.0 0.00 0.00 0.00 78 1017.3
20260902062858 25 221 0.0 0.0 0.00 0.00 0.00 78 1017.4
20260902062758 25 221 0.0 0.0 0.00 0.00 0.00 78 1017.3
20260902062659 25 214 0.0 0.0 0.00 0.00 0.00 78 1017.3
20260902062557 25 214 0.0 0.0 0.00 0.00 0.00 78 1017.4
20260902062459 25 214 0.0 0.0 0.00 0.00 0.00 78 1017.3
20260902062357 25 214 0.0 0.0 0.00 0.00 0.00 78 1017.3
20260902062258 25 214 0.0 0.0 0.00 0.00 0.00 78 1017.4
20260902062157 25 214 0.0 0.0 0.00 0.00 0.00 78 1017.4
20260902061958 25 214 0.0 0.0 0.00 0.00 0.00 78 1017.3
20260902061858 25 214 0.0 0.0 0.00 0.00 0.00 78 1017.3
20260902061557 25 214 0.0 0.0 0.00 0.00 0.00 78 1017.3
20260902061357 25 214 0.0 0.0 0.00 0.00 0.00 78 1017.3
20260902061159 25 214 0.0 0.0 0.00 0.00 0.00 78 1017.3
20260902060958 25 214 0.0 0.0 0.00 0.00 0.00 78 1017.4
20260902060857 25 214 0.0 0.0 0.00 0.00 0.00 78 1017.3
20260902060758 25 214 0.0 0.0 0.00 0.00 0.00 78 1017.4
20260902060657 25 214 0.0 0.0 0.00 0.00 0.00 78 1017.4
20260902060457 25 207 0.0 0.0 0.00 0.00 0.00 78 1017.4
20260902060359 25 203 0.0 0.0 0.00 0.00 0.00 78 1017.3
20260902060158 25 203 0.0 0.0 0.00 0.00 0.00 78 1017.3
20260902055959 25 203 0.0 0.0 0.00 0.00 0.00 78 1017.3
20260902055858 25 203 0.0 0.0 0.00 0.00 0.00 78 1017.4
20260902055757 25 203 0.0 0.0 0.00 0.00 0.00 78 1017.4
20260902055658 25 203 0.0 0.0 0.00 0.00 0.00 78 1017.3
20260902055557 25 203 0.0 0.0 0.00 0.00 0.00 78 1017.4
20260902055459 25 203 0.0 0.0 0.00 0.00 0.00 78 1017.4
20260902055401 25 203 0.0 0.0 0.00 0.00 0.00 78 1017.3
20260902055257 25 203 0.0 0.0 0.00 0.00 0.00 78 1017.4
20260902055159 25 203 0.0 0.0 0.00 0.00 0.00 78 1017.4
20260902055057 25 203 0.0 0.0 0.00 0.00 0.00 78 1017.4
20260902054957 25 203 0.0 0.0 0.00 0.00 0.00 78 1017.4
20260902054857 25 203 0.0 0.0 0.00 0.00 0.00 78 1017.4
20260902054759 25 203 0.0 0.0 0.00 0.00 0.00 78 1017.4
20260902054657 26 203 0.0 0.0 0.00 0.00 0.00 78 1017.4
20260902054457 26 203 0.0 0.0 0.00 0.00 0.00 78 1017.4
20260902054358 26 203 0.0 0.0 0.00 0.00 0.00 78 1017.4
20260902054257 26 203 0.0 0.0 0.00 0.00 0.00 78 1017.4
20260902054158 26 203 0.0 0.0 0.00 0.00 0.00 77 1017.4
20260902053958 26 203 0.0 0.0 0.00 0.00 0.00 77 1017.3
20260902053857 26 203 0.0 0.0 0.00 0.00 0.00 77 1017.4
20260902053758 26 203 0.0 0.0 0.00 0.00 0.00 77 1017.4
20260902053658 26 203 0.0 0.0 0.00 0.00 0.00 77 1017.4
20260902053557 26 203 0.0 0.0 0.00 0.00 0.00 77 1017.4
20260902053358 26 203 0.0 0.0 0.00 0.00 0.00 77 1017.4
20260902053259 26 203 0.0 0.0 0.00 0.00 0.00 77 1017.4
20260902053157 26 203 0.0 0.0 0.00 0.00 0.00 77 1017.4
20260902053057 26 203 0.0 0.0 0.00 0.00 0.00 77 1017.4
20260902052958 26 203 0.0 0.0 0.00 0.00 0.00 77 1017.4
20260902052858 26 203 0.0 0.0 0.00 0.00 0.00 77 1017.4
20260902052757 26 203 0.0 0.0 0.00 0.00 0.00 77 1017.3
20260902052657 26 203 0.0 0.0 0.00 0.00 0.00 77 1017.4
20260902052557 26 203 0.0 0.0 0.00 0.00 0.00 77 1017.4
20260902052359 26 203 0.0 0.0 0.00 0.00 0.00 77 1017.4
20260902052159 26 203 0.0 0.0 0.00 0.00 0.00 77 1017.4
20260902052058 26 203 0.0 0.0 0.00 0.00 0.00 77 1017.3
20260902051858 26 203 0.0 0.0 0.00 0.00 0.00 77 1017.4
20260902051759 26 203 0.0 0.0 0.00 0.00 0.00 77 1017.3
20260902051658 26 203 0.0 0.0 0.00 0.00 0.00 77 1017.4
20260902051459 26 193 0.0 0.0 0.00 0.00 0.00 77 1017.3
20260902051357 26 193 0.0 0.0 0.00 0.00 0.00 77 1017.3
20260902051257 26 193 0.0 0.0 0.00 0.00 0.00 77 1017.4
20260902051157 26 193 0.0 0.0 0.00 0.00 0.00 77 1017.4
20260902051057 26 193 0.0 0.0 0.00 0.00 0.00 77 1017.3
20260902050959 26 193 0.0 0.0 0.00 0.00 0.00 77 1017.4
20260902050857 26 192 0.0 0.0 0.00 0.00 0.00 77 1017.4
20260902050756 26 192 0.0 0.0 0.00 0.00 0.00 77 1017.3
20260902050658 26 192 0.0 0.0 0.00 0.00 0.00 77 1017.4
20260902050459 26 198 0.0 0.0 0.00 0.00 0.00 77 1017.4
20260902050358 26 198 0.0 0.0 0.00 0.00 0.00 77 1017.4
20260902050259 26 200 0.0 0.0 0.00 0.00 0.00 77 1017.4
20260902050157 26 200 0.0 0.0 0.00 0.00 0.00 77 1017.4
20260902050059 26 200 0.0 0.0 0.00 0.00 0.00 77 1017.4
20260902045959 26 200 0.0 0.0 0.00 0.00 0.00 77 1017.6
20260902045757 26 200 0.0 0.0 0.00 0.00 0.00 77 1017.5
20260902045700 26 200 0.0 0.0 0.00 0.00 0.00 77 1017.5
20260902045559 26 200 0.0 0.0 0.00 0.00 0.00 77 1017.5
20260902045458 26 200 0.0 0.0 0.00 0.00 0.00 76 1017.5
20260902045400 26 200 0.0 0.0 0.00 0.00 0.00 76 1017.5
20260902045300 26 200 0.0 0.0 0.00 0.00 0.00 76 1017.5
20260902045200 26 200 0.0 0.0 0.00 0.00 0.00 76 1017.4
20260902045058 26 200 0.0 0.0 0.00 0.00 0.00 76 1017.5
20260902044959 26 223 0.0 0.0 0.00 0.00 0.00 76 1017.5
20260902044859 26 223 0.0 0.0 0.00 0.00 0.00 76 1017.4
20260902044759 26 223 0.0 0.0 0.00 0.00 0.00 76 1017.5
20260902044659 26 223 0.0 0.0 0.00 0.00 0.00 76 1017.4
20260902044559 26 223 0.0 0.0 0.00 0.00 0.00 76 1017.5
20260902044458 26 223 0.0 0.0 0.00 0.00 0.00 76 1017.5
20260902044358 26 223 0.0 0.0 0.00 0.00 0.00 76 1017.5
20260902044258 26 223 0.0 0.0 0.00 0.00 0.00 76 1017.5
20260902044201 26 206 0.0 0.0 0.00 0.00 0.00 76 1017.4
20260902044058 26 207 0.0 0.0 0.00 0.00 0.00 76 1017.5
20260902043958 26 207 0.0 0.0 0.00 0.00 0.00 76 1017.5
20260902043858 26 206 0.0 0.0 0.00 0.00 0.00 76 1017.5
20260902043659 26 206 0.0 0.0 0.00 0.00 0.00 76 1017.5
20260902043559 26 207 0.0 0.0 0.00 0.00 0.00 76 1017.4
20260902043459 26 206 0.0 0.0 0.00 0.00 0.00 76 1017.5
20260902043301 26 206 0.0 0.0 0.00 0.00 0.00 75 1017.4
20260902043159 26 206 0.0 0.0 0.00 0.00 0.00 75 1017.4
20260902043100 26 207 0.0 0.0 0.00 0.00 0.00 75 1017.4
20260902043001 26 206 0.0 0.0 0.00 0.00 0.00 75 1017.4
20260902042859 26 206 0.0 0.0 0.00 0.00 0.00 75 1017.4
20260902042559 26 206 0.0 0.0 0.00 0.00 0.00 75 1017.5
20260902042458 26 207 0.0 0.0 0.00 0.00 0.00 75 1017.4
20260902042359 26 206 0.0 0.0 0.00 0.00 0.00 75 1017.5
20260902042300 26 207 0.0 0.0 0.00 0.00 0.00 75 1017.5
20260902042158 26 207 0.0 0.0 0.00 0.00 0.00 75 1017.4
20260902042059 26 206 0.0 0.0 0.00 0.00 0.00 75 1017.4
20260902042000 26 207 0.0 0.0 0.00 0.00 0.00 75 1017.4
20260902041759 26 207 0.0 0.0 0.00 0.00 0.00 74 1017.4
20260902041659 26 206 0.0 0.0 0.00 0.00 0.00 74 1017.4
20260902041459 26 206 0.0 0.0 0.00 0.00 0.00 74 1017.4
20260902041359 26 206 0.0 0.0 0.00 0.00 0.00 74 1017.3
20260902041300 26 206 0.0 0.0 0.00 0.00 0.00 74 1017.3
20260902041159 26 206 0.0 0.0 0.00 0.00 0.00 74 1017.3
20260902040859 26 196 0.0 0.0 0.00 0.00 0.00 74 1017.4
20260902040759 26 196 0.0 0.0 0.00 0.00 0.00 73 1017.4
20260902040700 26 196 0.0 0.0 0.00 0.00 0.00 73 1017.3
20260902040600 26 196 0.0 0.0 0.00 0.00 0.00 73 1017.4
20260902040459 26 196 0.0 0.0 0.00 0.00 0.00 73 1017.4
20260902040358 26 196 0.0 0.0 0.00 0.00 0.00 73 1017.5
20260902040258 26 196 0.0 0.0 0.00 0.00 0.00 73 1017.5
20260902040159 26 196 0.0 0.0 0.00 0.00 0.00 73 1017.5
20260902035858 27 196 0.0 0.0 0.00 0.00 0.00 73 1017.5
20260902035800 27 196 0.0 0.0 0.00 0.00 0.00 73 1017.5
20260902035659 27 196 0.0 0.0 0.00 0.00 0.00 73 1017.5
20260902035558 27 196 0.0 0.0 0.00 0.00 0.00 73 1017.5
20260902035458 27 196 0.0 0.0 0.00 0.00 0.00 73 1017.5
20260902035400 27 196 0.0 0.0 0.00 0.00 0.00 73 1017.5
20260902035258 27 196 0.0 0.0 0.00 0.00 0.00 73 1017.5
20260902035158 27 196 0.0 0.0 0.00 0.00 0.00 73 1017.4
20260902035058 27 196 0.0 0.0 0.00 0.00 0.00 73 1017.4
20260902034958 27 196 0.0 0.0 0.00 0.00 0.00 72 1017.4
20260902034859 27 196 0.0 0.0 0.00 0.00 0.00 72 1017.5
20260902034758 27 196 0.0 0.0 0.00 0.00 0.00 72 1017.4
20260902034658 27 196 0.0 0.0 0.00 0.00 0.00 72 1017.4
20260902034558 27 196 0.0 0.0 0.00 0.00 0.00 72 1017.4
20260902034459 27 196 0.0 0.0 0.00 0.00 0.00 72 1017.4
20260902034359 27 196 0.0 0.0 0.00 0.00 0.00 72 1017.5
20260902034259 27 196 0.0 0.0 0.00 0.00 0.00 72 1017.5
20260902034158 27 196 0.0 0.0 0.00 0.00 0.00 72 1017.5
20260902034059 27 196 0.0 0.0 0.00 0.00 0.00 72 1017.5
20260902033958 27 196 0.0 0.0 0.00 0.00 0.00 72 1017.5
20260902033858 27 196 0.0 0.0 0.00 0.00 0.00 72 1017.5
20260902033758 27 196 0.0 0.0 0.00 0.00 0.00 72 1017.6
20260902033658 27 194 0.0 0.0 0.00 0.00 0.00 72 1017.5
20260902033459 27 194 0.0 0.0 0.00 0.00 0.00 72 1017.5
20260902033358 27 194 0.0 0.0 0.00 0.00 0.00 72 1017.5
20260902033258 27 194 0.0 0.0 0.00 0.00 0.00 72 1017.5
20260902033158 27 194 0.0 0.0 0.00 0.00 0.00 72 1017.5
20260902033058 27 194 0.0 0.0 0.00 0.00 0.00 72 1017.5
20260902033000 27 194 0.0 0.0 0.00 0.00 0.00 72 1017.5
20260902032900 27 194 0.0 0.0 0.00 0.00 0.00 72 1017.5
20260902032100 27 250 0.0 0.0 0.00 0.00 0.00 72 1017.4
20260902031803 27 248 0.0 0.0 0.00 0.00 0.00 72 1017.4
20260902031700 27 267 0.0 0.0 0.00 0.00 0.00 73 1017.4
20260902031605 27 268 0.0 0.0 0.00 0.00 0.00 73 1017.4
20260902031508 27 257 0.0 0.0 0.00 0.00 0.00 73 1017.4
20260902031404 27 257 0.0 0.0 0.00 0.00 0.00 73 1017.4
20260902031301 27 258 0.0 0.0 0.00 0.00 0.00 73 1017.4
20260902031103 27 258 0.0 0.0 0.00 0.00 0.00 73 1017.4
20260902031001 27 258 0.0 0.0 0.00 0.00 0.00 73 1017.4
20260902030759 27 153 0.0 0.0 0.00 0.00 0.00 73 1017.4
20260902030707 27 269 0.0 0.0 0.00 0.00 0.00 73 1017.4
20260902030502 27 202 0.0 0.0 0.00 0.00 0.00 73 1017.4
20260902030359 27 202 0.0 0.0 0.00 0.00 0.00 73 1017.4
20260902030306 27 202 0.0 0.0 0.00 0.00 0.00 73 1017.4
20260902030200 27 202 0.0 0.0 0.00 0.00 0.00 73 1017.4
20260902030059 27 202 0.0 0.0 0.00 0.00 0.00 73 1017.4
20260902025959 27 202 0.0 0.0 0.00 0.00 0.00 73 1017.3
20260902025858 27 202 0.0 0.0 0.00 0.00 0.00 73 1017.3
20260902025659 27 202 0.0 0.0 0.00 0.00 0.00 73 1017.4
20260902025600 27 202 0.0 0.0 0.00 0.00 0.00 73 1017.4
20260902025458 27 202 0.0 0.0 0.00 0.00 0.00 73 1017.4
20260902025300 27 202 0.0 0.0 0.00 0.00 0.00 73 1017.4
20260902025158 27 202 0.0 0.0 0.00 0.00 0.00 73 1017.5
20260902025058 27 202 0.0 0.0 0.00 0.00 0.00 73 1017.5
20260902024958 27 202 0.0 0.0 0.00 0.00 0.00 73 1017.4
20260902024858 27 202 0.0 0.0 0.00 0.00 0.00 73 1017.4
20260902024758 27 202 0.0 0.0 0.00 0.00 0.00 73 1017.4
20260902024558 27 202 0.0 0.0 0.00 0.00 0.00 73 1017.5
20260902024500 27 202 0.0 0.0 0.00 0.00 0.00 73 1017.4
20260902024358 27 202 0.0 0.0 0.00 0.00 0.00 73 1017.5
20260902024159 27 202 0.0 0.0 0.00 0.00 0.00 73 1017.5
20260902024058 27 202 0.0 0.0 0.00 0.00 0.00 73 1017.5
20260902023959 27 202 0.0 0.0 0.00 0.00 0.00 73 1017.5
20260902023900 27 202 0.0 0.0 0.00 0.00 0.00 73 1017.4
20260902023758 27 202 0.0 0.0 0.00 0.00 0.00 73 1017.4
20260902023659 27 202 0.0 0.0 0.00 0.00 0.00 74 1017.5
20260902023559 27 202 0.0 0.0 0.00 0.00 0.00 74 1017.5
20260902023458 27 202 0.0 0.0 0.00 0.00 0.00 74 1017.5
20260902023359 27 202 0.0 0.0 0.00 0.00 0.00 73 1017.5
20260902023257 27 202 0.0 0.0 0.00 0.00 0.00 73 1017.5
20260902023159 27 202 0.0 0.0 0.00 0.00 0.00 73 1017.4
20260902023059 27 202 0.0 0.0 0.00 0.00 0.00 73 1017.5
20260902022958 27 202 0.0 0.0 0.00 0.00 0.00 73 1017.5
20260902022859 27 202 0.0 0.0 0.00 0.00 0.00 73 1017.6
20260902022759 27 202 0.0 0.0 0.00 0.00 0.00 73 1017.5
20260902022558 27 202 0.0 0.0 0.00 0.00 0.00 73 1017.5
20260902022459 27 202 0.0 0.0 0.00 0.00 0.00 73 1017.5
20260902022358 27 202 0.0 0.0 0.00 0.00 0.00 73 1017.5
20260902022158 27 202 0.0 0.0 0.00 0.00 0.00 73 1017.6
20260902022101 27 202 0.0 0.0 0.00 0.00 0.00 73 1017.5
20260902022002 27 202 0.0 0.0 0.00 0.00 0.00 73 1017.6
20260902021858 27 202 0.0 0.0 0.00 0.00 0.00 73 1017.5
20260902021759 27 202 0.0 0.0 0.00 0.00 0.00 73 1017.5
20260902021558 27 202 0.0 0.0 0.00 0.00 0.00 73 1017.4
20260902021458 27 202 0.0 0.0 0.00 0.00 0.00 73 1017.5
20260902021358 27 202 0.0 0.0 0.00 0.00 0.00 72 1017.5
20260902021100 27 202 0.0 0.0 0.00 0.00 0.00 73 1017.5
20260902020957 27 202 0.0 0.0 0.00 0.00 0.00 72 1017.5
20260902020859 27 202 0.0 0.0 0.00 0.00 0.00 73 1017.5
20260902020800 27 202 0.0 0.0 0.00 0.00 0.00 72 1017.6
20260902020658 27 202 0.0 0.0 0.00 0.00 0.00 72 1017.5
20260902020558 27 202 0.0 0.0 0.00 0.00 0.00 72 1017.5
20260902020458 27 202 0.0 0.0 0.00 0.00 0.00 72 1017.5
20260902020258 27 202 0.0 0.0 0.00 0.00 0.00 72 1017.5
20260902020158 27 202 0.0 0.0 0.00 0.00 0.00 72 1017.5
20260902020100 27 202 0.0 0.0 0.00 0.00 0.00 72 1017.6
20260902015758 27 202 0.0 0.0 0.00 0.00 0.00 71 1017.6
20260902015659 28 202 0.0 0.0 0.00 0.00 0.00 71 1017.5
20260902015557 28 202 0.0 0.0 0.00 0.00 0.00 71 1017.5
20260902015458 28 202 0.0 0.0 0.00 0.00 0.00 71 1017.5
20260902015400 28 202 0.0 0.0 0.00 0.00 0.00 71 1017.5
20260902015158 28 202 0.0 0.0 0.00 0.00 0.00 71 1017.5
20260902015058 28 202 0.0 0.0 0.00 0.00 0.00 71 1017.5
20260902014958 28 202 0.0 0.0 0.00 0.00 0.00 71 1017.5
20260902014859 28 202 0.0 0.0 0.00 0.00 0.00 70 1017.5
20260902014758 28 202 0.0 0.0 0.00 0.00 0.00 71 1017.5
20260902014458 28 202 0.0 0.0 0.00 0.00 0.00 70 1017.5
20260902014400 28 202 0.0 0.0 0.00 0.00 0.00 71 1017.5
20260902014259 28 202 0.0 0.0 0.00 0.00 0.00 71 1017.5
20260902014200 28 202 0.0 0.0 0.00 0.00 0.00 70 1017.4
20260902014100 28 202 0.0 0.0 0.00 0.00 0.00 70 1017.5
20260902013959 28 202 0.0 0.0 0.00 0.00 0.00 70 1017.4
20260902013859 28 202 0.0 0.0 0.00 0.00 0.00 70 1017.5
20260902013758 28 202 0.0 0.0 0.00 0.00 0.00 70 1017.4
20260902013659 28 202 0.0 0.0 0.00 0.00 0.00 70 1017.4
20260902013559 28 202 0.0 0.0 0.00 0.00 0.00 70 1017.5
20260902013459 28 202 0.0 0.0 0.00 0.00 0.00 70 1017.4
20260902013359 28 202 0.0 0.0 0.00 0.00 0.00 70 1017.4
20260902013300 28 202 0.0 0.0 0.00 0.00 0.00 70 1017.5
20260902013059 28 202 0.0 0.0 0.00 0.00 0.00 69 1017.4
20260902012958 28 202 0.0 0.0 0.00 0.00 0.00 69 1017.5
20260902012858 28 193 0.0 0.0 0.00 0.00 0.00 69 1017.5
20260902012759 28 193 0.0 0.0 0.00 0.00 0.00 69 1017.4
20260902012659 28 193 0.0 0.0 0.00 0.00 0.00 69 1017.4
20260902012559 28 193 0.0 0.0 0.00 0.00 0.00 69 1017.4
20260902012501 28 193 0.0 0.0 0.00 0.00 0.00 69 1017.4
20260902012359 28 193 0.0 0.0 0.00 0.00 0.00 69 1017.3
20260902012259 28 193 0.0 0.0 0.00 0.00 0.00 69 1017.3
20260902012158 28 193 0.0 0.0 0.00 0.00 0.00 69 1017.3
20260902012059 28 193 0.0 0.0 0.00 0.00 0.00 69 1017.3
20260902011900 28 193 0.0 0.0 0.00 0.00 0.00 69 1017.3
20260902011759 28 193 0.0 0.0 0.00 0.00 0.00 69 1017.2
20260902011659 28 193 0.0 0.0 0.00 0.00 0.00 69 1017.3
20260902011558 28 193 0.0 0.0 0.00 0.00 0.00 69 1017.2
20260902011458 28 193 0.0 0.0 0.00 0.00 0.00 69 1017.2
20260902011400 28 193 0.0 0.0 0.00 0.00 0.00 68 1017.1
20260902011258 28 193 0.0 0.0 0.00 0.00 0.00 68 1017.1
20260902011158 28 193 0.0 0.0 0.00 0.00 0.00 68 1017.0
20260902011058 28 193 0.0 0.0 0.00 0.00 0.00 68 1017.0
20260902010958 28 193 0.0 0.0 0.00 0.00 0.00 68 1017.0
20260902010901 28 193 0.0 0.0 0.00 0.00 0.00 68 1017.0
20260902010800 28 193 0.0 0.0 0.00 0.00 0.00 68 1017.0
20260902010658 28 193 0.0 0.0 0.00 0.00 0.00 68 1016.9
20260902010559 28 193 0.0 0.0 0.00 0.00 0.00 68 1016.9
20260902010500 28 193 0.0 0.0 0.00 0.00 0.00 67 1016.9
20260902010359 29 193 0.0 0.0 0.00 0.00 0.00 67 1016.9
20260902010258 29 193 0.0 0.0 0.00 0.00 0.00 67 1016.9
20260902010158 29 193 0.0 0.0 0.00 0.00 0.00 67 1016.9
20260902010058 29 193 0.0 0.0 0.00 0.00 0.00 67 1016.8
20260902005958 29 193 0.0 0.0 0.00 0.00 0.00 67 1016.9
20260902005859 29 193 0.0 0.0 0.00 0.00 0.00 66 1016.8
20260902005759 29 193 0.0 0.0 0.00 0.00 0.00 66 1016.8
20260902005559 29 193 0.0 0.0 0.00 0.00 0.00 66 1016.8
20260902005500 29 193 0.0 0.0 0.00 0.00 0.00 66 1016.8
20260902005258 29 193 0.0 0.0 0.00 0.00 0.00 66 1016.8
20260902005058 29 193 0.0 0.0 0.00 0.00 0.00 65 1016.8
20260902004959 29 193 0.0 0.0 0.00 0.00 0.00 65 1016.7
20260902004859 29 193 0.0 0.0 0.00 0.00 0.00 65 1016.7
20260902004803 30 193 0.0 0.0 0.00 0.00 0.00 65 1016.8
20260902004658 30 193 0.0 0.0 0.00 0.00 0.00 65 1016.7
20260902004400 30 193 0.0 0.0 0.00 0.00 0.00 64 1016.8
20260902004259 30 193 0.0 0.0 0.00 0.00 0.00 64 1016.7
20260902004158 30 193 0.0 0.0 0.00 0.00 0.00 64 1016.8
20260902004058 30 193 0.0 0.0 0.00 0.00 0.00 64 1016.8
20260902003959 30 193 0.0 0.0 0.00 0.00 0.00 64 1016.8
20260902003859 30 193 0.0 0.0 0.00 0.00 0.00 64 1016.7
20260902003702 30 193 0.0 0.0 0.00 0.00 0.00 63 1016.8
20260902003559 30 193 0.0 0.0 0.00 0.00 0.00 64 1016.8
20260902003459 30 193 0.0 0.0 0.00 0.00 0.00 63 1016.8
20260902003258 30 193 0.0 0.0 0.00 0.00 0.00 62 1016.9
20260902003100 30 200 0.0 0.0 0.00 0.00 0.00 63 1016.8
20260902002959 30 168 0.0 0.0 0.00 0.00 0.00 62 1016.8
20260902002858 30 168 0.0 0.0 0.00 0.00 0.00 62 1016.9
20260902002759 30 168 0.0 0.0 0.00 0.00 0.00 62 1016.9
20260902002658 30 166 0.0 0.0 0.00 0.00 0.00 62 1016.9
20260902002559 30 166 0.0 0.0 0.00 0.00 0.00 62 1016.9
20260902002458 30 166 0.0 0.0 0.00 0.00 0.00 62 1017.0
20260902002358 30 166 0.0 0.0 0.00 0.00 0.00 62 1017.0
20260902002306 30 166 0.0 0.0 0.00 0.00 0.00 61 1017.0
20260902002201 30 159 0.0 0.0 0.00 0.00 0.00 61 1017.0
20260902002059 30 159 0.0 0.0 0.00 0.00 0.00 61 1017.0
20260902001759 30 154 0.0 0.0 0.00 0.00 0.00 61 1017.0
20260902001600 30 204 0.0 0.0 0.00 0.00 0.00 61 1017.1
20260902001458 31 204 0.0 0.0 0.00 0.00 0.00 61 1017.1
20260902001358 31 204 0.0 0.0 0.00 0.00 0.00 61 1017.1
20260902001158 31 181 0.0 0.0 0.00 0.00 0.00 61 1017.1
20260902001059 31 181 0.0 0.0 0.00 0.00 0.00 61 1017.1
20260902000958 31 178 0.0 0.0 0.00 0.00 0.00 61 1017.1
20260902000858 31 178 0.0 0.0 0.00 0.00 0.00 60 1017.1
20260902000800 31 178 0.0 1.6 0.00 0.00 0.00 60 1017.1
20260902000658 31 228 0.0 1.6 0.00 0.00 0.00 60 1017.0
20260902000459 31 229 0.0 1.6 0.00 0.00 0.00 60 1017.1
20260902000359 31 227 0.0 1.6 0.00 0.00 0.00 60 1017.1
20260902000259 31 227 0.0 3.2 0.00 0.00 0.00 60 1017.1
20260902000000 31 231 0.0 4.8 0.00 0.00 0.00 60 1017.1
20260901235858 31 178 0.0 4.8 0.00 0.00 0.00 60 1017.2
20260901235759 31 179 0.0 4.8 0.00 0.00 0.00 60 1017.1
20260901235658 31 219 0.0 6.4 0.00 0.00 0.00 60 1017.1
20260901235600 31 197 0.0 6.4 0.00 0.00 0.00 60 1017.2
20260901235458 31 190 0.0 6.4 0.00 0.00 0.00 60 1017.2
20260901235359 31 161 0.0 6.4 0.00 0.00 0.00 60 1017.1
20260901235258 31 153 0.0 6.4 0.00 0.00 0.00 60 1017.1
20260901235158 31 151 3.2 6.4 0.00 0.00 0.00 60 1017.1
20260901235058 31 161 3.2 6.4 0.00 0.00 0.00 60 1017.2
20260901234958 31 179 0.0 6.4 0.00 0.00 0.00 60 1017.1
20260901234800 31 169 0.0 8.0 0.00 0.00 0.00 60 1017.2
20260901234658 31 229 0.0 8.0 0.00 0.00 0.00 60 1017.2
20260901234559 31 218 0.0 8.0 0.00 0.00 0.00 60 1017.2
20260901234358 31 187 3.2 8.0 0.00 0.00 0.00 60 1017.2
20260901234201 31 195 0.0 8.0 0.00 0.00 0.00 60 1017.3
20260901234057 31 185 0.0 8.0 0.00 0.00 0.00 60 1017.3
20260901234000 31 169 1.6 8.0 0.00 0.00 0.00 59 1017.3
20260901233858 31 209 0.0 3.2 0.00 0.00 0.00 60 1017.3
20260901233758 31 209 0.0 4.8 0.00 0.00 0.00 59 1017.2
20260901233601 31 176 1.6 8.0 0.00 0.00 0.00 59 1017.2
20260901233459 32 185 0.0 8.0 0.00 0.00 0.00 59 1017.3
20260901233358 32 211 0.0 8.0 0.00 0.00 0.00 60 1017.2
20260901233258 32 171 0.0 8.0 0.00 0.00 0.00 60 1017.3
20260901233159 32 175 0.0 8.0 0.00 0.00 0.00 59 1017.3
20260901233059 32 169 1.6 8.0 0.00 0.00 0.00 59 1017.3
20260901232958 32 175 1.6 8.0 0.00 0.00 0.00 59 1017.2
20260901232902 32 211 8.0 8.0 0.00 0.00 0.00 59 1017.3
20260901232759 32 173 0.0 8.0 0.00 0.00 0.00 60 1017.3
20260901232658 32 178 1.6 8.0 0.00 0.00 0.00 60 1017.2
20260901232558 32 215 1.6 8.0 0.00 0.00 0.00 60 1017.3
20260901232458 32 221 0.0 8.0 0.00 0.00 0.00 60 1017.2
20260901232402 32 198 1.6 8.0 0.00 0.00 0.00 59 1017.3
20260901232158 32 294 1.6 8.0 0.00 0.00 0.00 59 1017.3
20260901232059 32 261 0.0 8.0 0.00 0.00 0.00 59 1017.3
20260901231958 32 173 1.6 8.0 0.00 0.00 0.00 59 1017.1
20260901231858 32 211 0.0 6.4 0.00 0.00 0.00 59 1017.3